GFSNGP_prec_precacc_036.txt.gz
Total_Precipitation_Accumulation
0.00 0.00 0.00 0.00 0.00 0.00 0.00 0.00 0.00 0.00 0.00 0.00 0.00 0.00 0.00 0.00 0.00 0.00 0.00 0.00 0.00 0.00 0.00 0.00 0.00 0.00 0.00 0.00 0.00 0.00 0.00 0.00 0.00 0.00 0.00 0.00 0.00 0.01 0.03 0.05 0.02 0.02 0.02 0.01
0.00 0.00 0.00 0.00 0.00 0.00 0.00 0.00 0.00 0.00 0.00 0.00 0.00 0.00 0.00 0.00 0.00 0.00 0.00 0.00 0.00 0.00 0.00 0.00 0.00 0.00 0.00 0.00 0.00 0.00 0.00 0.00 0.01 0.04 0.07 0.10 0.13 0.10 0.10 0.07 0.03 0.01 0.03 0.01
0.00 0.00 0.00 0.00 0.00 0.00 0.00 0.00 0.00 0.00 0.00 0.00 0.00 0.00 0.00 0.00 0.00 0.00 0.00 0.00 0.00 0.00 0.00 0.00 0.00 0.00 0.00 0.00 0.00 0.00 0.00 0.00 0.02 0.05 0.08 0.07 0.05 0.07 0.05 0.04 0.06 0.06 0.01 0.00
0.00 0.00 0.01 0.00 0.00 0.00 0.00 0.00 0.00 0.00 0.00 0.00 0.00 0.00 0.00 0.00 0.00 0.00 0.00 0.00 0.00 0.00 0.00 0.00 0.00 0.00 0.00 0.00 0.00 0.00 0.00 0.00 0.00 0.01 0.02 0.02 0.04 0.06 0.08 0.12 0.06 0.00 0.00 0.00
0.00 0.00 0.01 0.00 0.00 0.00 0.00 0.00 0.00 0.00 0.00 0.00 0.00 0.00 0.00 0.00 0.03 0.03 0.03 0.01 0.00 0.00 0.00 0.00 0.00 0.00 0.00 0.00 0.00 0.00 0.00 0.00 0.00 0.01 0.03 0.02 0.04 0.09 0.08 0.01 0.00 0.00 0.00 0.00
0.00 0.05 0.04 0.00 0.00 0.00 0.00 0.01 0.00 0.00 0.01 0.00 0.01 0.03 0.04 0.09 0.09 0.07 0.02 0.00 0.00 0.00 0.00 0.00 0.00 0.00 0.00 0.00 0.00 0.00 0.00 0.00 0.00 0.01 0.03 0.04 0.06 0.02 0.00 0.00 0.00 0.00 0.00 0.00
0.00 0.04 0.01 0.00 0.00 0.00 0.08 0.06 0.02 0.02 0.01 0.01 0.04 0.14 0.14 0.10 0.06 0.01 0.00 0.00 0.00 0.00 0.00 0.00 0.00 0.00 0.00 0.00 0.00 0.00 0.00 0.00 0.01 0.02 0.04 0.04 0.02 0.00 0.00 0.00 0.00 0.00 0.01 0.01
0.03 0.04 0.01 0.00 0.01 0.05 0.04 0.03 0.04 0.03 0.01 0.04 0.13 0.11 0.06 0.02 0.00 0.00 0.00 0.00 0.00 0.00 0.00 0.00 0.00 0.00 0.00 0.00 0.00 0.00 0.01 0.01 0.02 0.04 0.04 0.01 0.00 0.00 0.00 0.00 0.00 0.00 0.01 0.01
0.04 0.02 0.00 0.00 0.01 0.02 0.03 0.04 0.03 0.03 0.08 0.15 0.06 0.03 0.03 0.00 0.00 0.00 0.01 0.01 0.00 0.00 0.00 0.00 0.00 0.00 0.01 0.00 0.00 0.01 0.02 0.03 0.03 0.02 0.00 0.00 0.00 0.00 0.00 0.00 0.00 0.01 0.01 0.01
0.02 0.02 0.00 0.01 0.00 0.01 0.03 0.04 0.05 0.14 0.11 0.02 0.04 0.02 0.01 0.02 0.03 0.02 0.01 0.00 0.01 0.00 0.00 0.00 0.00 0.00 0.00 0.00 0.00 0.01 0.01 0.00 0.00 0.00 0.00 0.00 0.00 0.00 0.00 0.00 0.00 0.00 0.01 0.01
0.05 0.01 0.01 0.02 0.05 0.08 0.12 0.19 0.16 0.05 0.07 0.07 0.02 0.03 0.04 0.03 0.02 0.01 0.01 0.02 0.01 0.00 0.00 0.00 0.00 0.00 0.00 0.00 0.00 0.00 0.00 0.00 0.00 0.00 0.00 0.00 0.00 0.00 0.00 0.00 0.00 0.00 0.00 0.02
0.05 0.05 0.12 0.16 0.18 0.22 0.17 0.06 0.04 0.06 0.03 0.00 0.00 0.00 0.00 0.00 0.01 0.02 0.03 0.01 0.00 0.00 0.00 0.00 0.00 0.00 0.00 0.00 0.00 0.00 0.00 0.00 0.00 0.01 0.01 0.00 0.00 0.00 0.00 0.00 0.00 0.00 0.00 0.01
0.05 0.06 0.10 0.15 0.11 0.04 0.01 0.01 0.01 0.00 0.00 0.00 0.00 0.00 0.01 0.03 0.06 0.05 0.01 0.01 0.00 0.00 0.00 0.00 0.00 0.00 0.00 0.00 0.00 0.00 0.00 0.00 0.01 0.01 0.01 0.01 0.01 0.01 0.01 0.00 0.00 0.00 0.00 0.00
0.01 0.04 0.05 0.03 0.02 0.00 0.00 0.00 0.00 0.00 0.00 0.00 0.02 0.06 0.08 0.08 0.02 0.01 0.01 0.00 0.00 0.00 0.00 0.00 0.00 0.00 0.00 0.00 0.00 0.00 0.00 0.01 0.02 0.01 0.02 0.01 0.01 0.02 0.02 0.02 0.02 0.01 0.01 0.00
0.01 0.01 0.03 0.02 0.00 0.00 0.00 0.00 0.00 0.01 0.03 0.09 0.10 0.10 0.06 0.02 0.01 0.01 0.00 0.00 0.00 0.00 0.00 0.00 0.01 0.00 0.00 0.00 0.00 0.00 0.01 0.01 0.01 0.02 0.02 0.01 0.02 0.03 0.03 0.02 0.02 0.01 0.01 0.00
0.00 0.00 0.00 0.00 0.00 0.00 0.01 0.01 0.06 0.15 0.16 0.14 0.09 0.03 0.00 0.00 0.00 0.00 0.00 0.00 0.00 0.00 0.00 0.00 0.01 0.00 0.00 0.00 0.00 0.01 0.01 0.01 0.02 0.02 0.02 0.02 0.02 0.03 0.03 0.03 0.02 0.02 0.01 0.01
0.00 0.00 0.01 0.02 0.02 0.05 0.12 0.14 0.13 0.11 0.09 0.04 0.00 0.00 0.00 0.00 0.00 0.00 0.00 0.00 0.00 0.00 0.01 0.01 0.00 0.00 0.00 0.00 0.01 0.01 0.01 0.02 0.02 0.02 0.02 0.02 0.02 0.03 0.03 0.03 0.03 0.02 0.02 0.02
0.00 0.00 0.01 0.06 0.13 0.16 0.15 0.11 0.08 0.03 0.00 0.00 0.00 0.00 0.00 0.00 0.00 0.00 0.00 0.00 0.01 0.01 0.00 0.00 0.00 0.00 0.00 0.00 0.01 0.01 0.03 0.03 0.04 0.04 0.03 0.03 0.02 0.02 0.03 0.03 0.03 0.03 0.02 0.01
0.03 0.09 0.14 0.17 0.16 0.11 0.06 0.02 0.00 0.00 0.00 0.00 0.00 0.00 0.00 0.00 0.00 0.00 0.01 0.02 0.02 0.02 0.01 0.00 0.00 0.00 0.00 0.00 0.01 0.02 0.04 0.05 0.04 0.03 0.04 0.04 0.03 0.03 0.03 0.04 0.03 0.03 0.02 0.01
0.10 0.09 0.06 0.03 0.01 0.00 0.00 0.00 0.00 0.00 0.00 0.00 0.00 0.00 0.00 0.00 0.01 0.01 0.02 0.02 0.01 0.02 0.00 0.00 0.00 0.00 0.00 0.00 0.02 0.04 0.05 0.04 0.05 0.05 0.05 0.05 0.04 0.04 0.05 0.05 0.04 0.04 0.04 0.04
0.00 0.00 0.00 0.00 0.00 0.00 0.00 0.00 0.00 0.00 0.00 0.00 0.00 0.01 0.01 0.01 0.02 0.04 0.05 0.03 0.01 0.00 0.00 0.01 0.01 0.00 0.01 0.01 0.02 0.03 0.06 0.07 0.08 0.09 0.08 0.08 0.07 0.06 0.06 0.07 0.08 0.09 0.07 0.07
0.00 0.00 0.00 0.00 0.00 0.00 0.00 0.00 0.00 0.00 0.00 0.00 0.01 0.01 0.02 0.02 0.04 0.04 0.02 0.03 0.02 0.02 0.02 0.01 0.01 0.01 0.02 0.03 0.04 0.06 0.08 0.08 0.09 0.09 0.09 0.09 0.10 0.09 0.07 0.06 0.08 0.07 0.07 0.07
0.00 0.00 0.00 0.00 0.00 0.00 0.00 0.00 0.00 0.00 0.00 0.01 0.02 0.03 0.05 0.04 0.04 0.06 0.05 0.02 0.01 0.01 0.02 0.02 0.02 0.04 0.05 0.06 0.07 0.08 0.07 0.07 0.09 0.10 0.10 0.10 0.10 0.09 0.07 0.06 0.05 0.06 0.06 0.06
0.00 0.00 0.00 0.00 0.00 0.00 0.00 0.00 0.00 0.00 0.00 0.01 0.04 0.05 0.06 0.05 0.04 0.03 0.04 0.02 0.01 0.01 0.02 0.04 0.06 0.07 0.08 0.11 0.10 0.08 0.07 0.08 0.08 0.08 0.09 0.09 0.09 0.08 0.08 0.07 0.07 0.07 0.07 0.07
0.00 0.00 0.00 0.00 0.00 0.00 0.00 0.00 0.00 0.00 0.01 0.03 0.04 0.03 0.02 0.04 0.08 0.03 0.02 0.02 0.02 0.05 0.06 0.08 0.08 0.07 0.09 0.09 0.09 0.08 0.07 0.06 0.06 0.08 0.09 0.09 0.09 0.10 0.09 0.09 0.08 0.07 0.08 0.07
0.00 0.00 0.00 0.00 0.00 0.00 0.00 0.00 0.02 0.02 0.05 0.04 0.04 0.02 0.02 0.02 0.03 0.03 0.03 0.03 0.06 0.07 0.10 0.11 0.09 0.09 0.11 0.10 0.10 0.09 0.08 0.07 0.07 0.08 0.09 0.10 0.10 0.10 0.09 0.09 0.09 0.09 0.11 0.11
0.00 0.00 0.00 0.00 0.00 0.01 0.02 0.04 0.07 0.04 0.04 0.05 0.06 0.02 0.03 0.02 0.02 0.04 0.06 0.08 0.09 0.10 0.11 0.11 0.11 0.12 0.12 0.12 0.10 0.08 0.08 0.08 0.08 0.09 0.10 0.11 0.11 0.10 0.10 0.11 0.12 0.12 0.11 0.13

GFSNGP_prec_precacc_042.txt.gz
Total_Precipitation_Accumulation
0.00 0.00 0.00 0.00 0.00 0.00 0.00 0.00 0.00 0.00 0.00 0.00 0.00 0.00 0.00 0.00 0.00 0.00 0.00 0.00 0.00 0.00 0.00 0.00 0.00 0.00 0.00 0.00 0.00 0.00 0.00 0.00 0.00 0.00 0.00 0.00 0.00 0.01 0.03 0.05 0.02 0.02 0.02 0.01
0.00 0.00 0.00 0.00 0.00 0.00 0.00 0.00 0.00 0.00 0.00 0.00 0.00 0.00 0.00 0.00 0.00 0.00 0.00 0.00 0.00 0.00 0.00 0.00 0.00 0.00 0.00 0.00 0.00 0.00 0.00 0.00 0.01 0.04 0.07 0.10 0.13 0.10 0.10 0.07 0.03 0.01 0.03 0.01
0.00 0.00 0.00 0.00 0.00 0.00 0.00 0.00 0.00 0.00 0.00 0.00 0.00 0.00 0.00 0.00 0.00 0.00 0.00 0.00 0.00 0.00 0.00 0.00 0.00 0.00 0.00 0.00 0.00 0.00 0.00 0.00 0.02 0.05 0.08 0.07 0.05 0.07 0.05 0.04 0.06 0.06 0.01 0.00
0.00 0.00 0.01 0.00 0.00 0.00 0.00 0.00 0.00 0.00 0.00 0.00 0.00 0.00 0.00 0.00 0.00 0.00 0.00 0.00 0.00 0.00 0.00 0.00 0.00 0.00 0.00 0.00 0.00 0.00 0.00 0.00 0.00 0.01 0.02 0.02 0.04 0.06 0.08 0.12 0.06 0.00 0.00 0.00
0.00 0.00 0.01 0.00 0.00 0.00 0.00 0.00 0.00 0.00 0.00 0.00 0.00 0.00 0.00 0.00 0.03 0.03 0.03 0.01 0.00 0.00 0.00 0.00 0.00 0.00 0.00 0.00 0.00 0.00 0.00 0.00 0.00 0.01 0.03 0.02 0.04 0.09 0.08 0.01 0.00 0.00 0.01 0.01
0.00 0.05 0.04 0.00 0.00 0.00 0.00 0.01 0.00 0.00 0.01 0.00 0.01 0.03 0.04 0.09 0.09 0.07 0.02 0.00 0.00 0.00 0.00 0.00 0.00 0.00 0.00 0.00 0.00 0.00 0.00 0.00 0.00 0.01 0.03 0.04 0.06 0.02 0.00 0.00 0.00 0.00 0.00 0.00
0.00 0.04 0.01 0.00 0.00 0.00 0.08 0.06 0.02 0.02 0.01 0.01 0.04 0.14 0.14 0.10 0.06 0.01 0.00 0.00 0.00 0.00 0.00 0.00 0.00 0.00 0.00 0.00 0.00 0.00 0.00 0.00 0.01 0.02 0.04 0.04 0.02 0.00 0.00 0.00 0.00 0.00 0.01 0.01
0.03 0.04 0.01 0.00 0.01 0.05 0.04 0.03 0.04 0.03 0.01 0.04 0.13 0.11 0.06 0.02 0.00 0.00 0.00 0.00 0.00 0.00 0.00 0.00 0.00 0.00 0.00 0.01 0.00 0.00 0.01 0.01 0.02 0.04 0.04 0.01 0.00 0.00 0.00 0.00 0.00 0.00 0.01 0.01
0.04 0.02 0.00 0.00 0.01 0.02 0.03 0.04 0.03 0.03 0.08 0.15 0.06 0.03 0.03 0.00 0.00 0.00 0.01 0.01 0.00 0.00 0.00 0.00 0.00 0.01 0.02 0.01 0.00 0.01 0.02 0.03 0.03 0.02 0.00 0.00 0.00 0.00 0.00 0.00 0.00 0.01 0.01 0.02
0.02 0.02 0.00 0.01 0.00 0.01 0.03 0.04 0.05 0.14 0.11 0.02 0.04 0.02 0.01 0.02 0.03 0.02 0.01 0.00 0.01 0.01 0.02 0.03 0.01 0.01 0.00 0.00 0.01 0.01 0.01 0.00 0.00 0.00 0.00 0.00 0.00 0.00 0.00 0.00 0.00 0.00 0.01 0.01
0.05 0.01 0.01 0.02 0.05 0.08 0.12 0.19 0.16 0.05 0.07 0.07 0.02 0.03 0.04 0.03 0.02 0.01 0.01 0.02 0.02 0.01 0.02 0.01 0.00 0.00 0.00 0.00 0.00 0.00 0.00 0.00 0.00 0.00 0.00 0.00 0.00 0.00 0.00 0.00 0.00 0.01 0.01 0.02
0.05 0.05 0.12 0.16 0.18 0.22 0.17 0.06 0.04 0.06 0.03 0.00 0.00 0.00 0.00 0.00 0.01 0.02 0.04 0.02 0.01 0.00 0.01 0.01 0.00 0.00 0.00 0.00 0.00 0.00 0.00 0.00 0.00 0.01 0.01 0.00 0.00 0.00 0.00 0.00 0.00 0.00 0.00 0.01
0.05 0.06 0.10 0.15 0.11 0.04 0.01 0.01 0.01 0.00 0.00 0.00 0.00 0.00 0.01 0.03 0.09 0.07 0.02 0.01 0.01 0.01 0.00 0.00 0.00 0.00 0.00 0.00 0.00 0.00 0.00 0.00 0.01 0.01 0.01 0.01 0.01 0.02 0.02 0.01 0.00 0.00 0.00 0.00
0.01 0.04 0.05 0.03 0.02 0.00 0.00 0.00 0.00 0.00 0.00 0.00 0.02 0.07 0.09 0.10 0.04 0.01 0.02 0.01 0.00 0.00 0.00 0.00 0.00 0.00 0.00 0.00 0.00 0.00 0.00 0.01 0.02 0.01 0.02 0.02 0.02 0.03 0.03 0.04 0.04 0.02 0.01 0.00
0.01 0.01 0.03 0.02 0.00 0.00 0.00 0.00 0.00 0.01 0.03 0.09 0.11 0.11 0.08 0.03 0.01 0.01 0.00 0.00 0.00 0.00 0.00 0.00 0.01 0.00 0.00 0.00 0.00 0.00 0.01 0.01 0.01 0.02 0.02 0.02 0.03 0.04 0.04 0.04 0.04 0.02 0.01 0.01
0.00 0.00 0.00 0.00 0.00 0.00 0.01 0.01 0.06 0.15 0.16 0.14 0.09 0.03 0.00 0.00 0.00 0.00 0.00 0.00 0.00 0.00 0.00 0.00 0.01 0.00 0.00 0.00 0.00 0.01 0.01 0.01 0.02 0.03 0.03 0.03 0.03 0.04 0.05 0.05 0.04 0.04 0.03 0.02
0.00 0.00 0.01 0.02 0.02 0.05 0.12 0.14 0.13 0.11 0.09 0.04 0.00 0.00 0.00 0.00 0.00 0.00 0.00 0.00 0.00 0.00 0.01 0.01 0.00 0.00 0.00 0.00 0.01 0.01 0.02 0.03 0.03 0.04 0.04 0.04 0.05 0.06 0.06 0.07 0.06 0.04 0.04 0.03
0.00 0.00 0.01 0.06 0.13 0.16 0.15 0.11 0.08 0.03 0.00 0.00 0.00 0.00 0.00 0.00 0.00 0.00 0.00 0.00 0.01 0.01 0.00 0.00 0.00 0.00 0.00 0.00 0.01 0.02 0.03 0.04 0.06 0.07 0.06 0.06 0.06 0.06 0.06 0.07 0.07 0.07 0.06 0.03
0.03 0.09 0.14 0.17 0.16 0.11 0.06 0.02 0.00 0.00 0.00 0.00 0.00 0.00 0.00 0.00 0.00 0.00 0.01 0.02 0.02 0.02 0.01 0.00 0.00 0.00 0.00 0.01 0.01 0.03 0.06 0.07 0.06 0.05 0.06 0.06 0.06 0.06 0.07 0.09 0.08 0.08 0.05 0.04
0.10 0.09 0.06 0.03 0.01 0.00 0.00 0.00 0.00 0.00 0.00 0.00 0.00 0.00 0.00 0.00 0.01 0.01 0.02 0.02 0.01 0.03 0.01 0.00 0.00 0.00 0.01 0.01 0.03 0.06 0.07 0.07 0.09 0.10 0.11 0.09 0.09 0.09 0.09 0.08 0.08 0.09 0.09 0.09
0.00 0.00 0.00 0.00 0.00 0.00 0.00 0.00 0.00 0.00 0.00 0.00 0.00 0.01 0.01 0.01 0.02 0.04 0.05 0.03 0.01 0.01 0.00 0.01 0.01 0.01 0.02 0.03 0.04 0.06 0.11 0.13 0.15 0.17 0.19 0.19 0.14 0.10 0.10 0.11 0.14 0.16 0.15 0.13
0.00 0.00 0.00 0.00 0.00 0.00 0.00 0.00 0.00 0.00 0.00 0.00 0.01 0.01 0.02 0.02 0.04 0.04 0.02 0.03 0.02 0.02 0.02 0.02 0.02 0.02 0.03 0.05 0.08 0.12 0.14 0.16 0.17 0.19 0.21 0.17 0.17 0.15 0.13 0.12 0.14 0.13 0.12 0.11
0.00 0.00 0.00 0.00 0.00 0.00 0.00 0.00 0.00 0.00 0.00 0.01 0.02 0.03 0.05 0.04 0.04 0.06 0.05 0.02 0.02 0.02 0.03 0.04 0.04 0.04 0.06 0.09 0.12 0.15 0.18 0.20 0.22 0.20 0.17 0.15 0.13 0.11 0.09 0.07 0.07 0.08 0.08 0.08
0.00 0.00 0.00 0.00 0.00 0.00 0.00 0.00 0.00 0.00 0.00 0.01 0.04 0.05 0.06 0.05 0.04 0.03 0.04 0.03 0.02 0.02 0.04 0.07 0.07 0.07 0.10 0.18 0.18 0.17 0.16 0.16 0.13 0.13 0.13 0.13 0.12 0.10 0.10 0.09 0.08 0.08 0.09 0.08
0.00 0.00 0.00 0.00 0.00 0.00 0.00 0.00 0.00 0.00 0.01 0.03 0.04 0.03 0.02 0.04 0.09 0.03 0.03 0.03 0.03 0.06 0.08 0.10 0.09 0.09 0.13 0.14 0.14 0.13 0.15 0.13 0.11 0.13 0.13 0.13 0.12 0.12 0.11 0.10 0.09 0.09 0.10 0.09
0.00 0.00 0.00 0.00 0.00 0.00 0.00 0.00 0.02 0.02 0.05 0.04 0.04 0.02 0.02 0.03 0.03 0.03 0.04 0.04 0.07 0.08 0.11 0.13 0.10 0.10 0.13 0.13 0.14 0.14 0.14 0.13 0.11 0.12 0.14 0.13 0.13 0.12 0.11 0.10 0.10 0.11 0.12 0.12
0.00 0.00 0.00 0.00 0.00 0.01 0.02 0.04 0.07 0.04 0.04 0.06 0.06 0.02 0.03 0.03 0.03 0.05 0.07 0.09 0.10 0.11 0.12 0.13 0.13 0.13 0.14 0.15 0.14 0.12 0.12 0.13 0.12 0.12 0.14 0.14 0.13 0.12 0.11 0.12 0.13 0.13 0.12 0.14

GFSNGP_prec_precacc_048.txt.gz
Total_Precipitation_Accumulation
0.00 0.00 0.00 0.00 0.00 0.00 0.00 0.00 0.00 0.00 0.00 0.00 0.00 0.00 0.00 0.00 0.00 0.00 0.00 0.00 0.00 0.01 0.02 0.02 0.02 0.02 0.03 0.03 0.04 0.05 0.03 0.01 0.01 0.00 0.00 0.00 0.00 0.01 0.03 0.05 0.02 0.02 0.02 0.01
0.00 0.00 0.00 0.00 0.00 0.00 0.00 0.00 0.00 0.00 0.00 0.00 0.00 0.00 0.00 0.00 0.00 0.00 0.00 0.00 0.00 0.01 0.03 0.02 0.03 0.02 0.03 0.03 0.03 0.02 0.00 0.00 0.01 0.04 0.07 0.10 0.13 0.10 0.10 0.07 0.03 0.01 0.03 0.01
0.00 0.00 0.00 0.00 0.00 0.00 0.00 0.00 0.00 0.00 0.00 0.00 0.00 0.00 0.00 0.00 0.00 0.00 0.00 0.00 0.00 0.00 0.00 0.01 0.02 0.04 0.05 0.03 0.01 0.00 0.00 0.01 0.02 0.05 0.08 0.07 0.05 0.07 0.05 0.04 0.06 0.06 0.01 0.00
0.00 0.00 0.01 0.00 0.00 0.00 0.00 0.00 0.00 0.00 0.00 0.00 0.00 0.00 0.00 0.00 0.00 0.00 0.00 0.00 0.00 0.00 0.00 0.00 0.00 0.00 0.00 0.00 0.00 0.00 0.00 0.00 0.00 0.01 0.02 0.02 0.04 0.07 0.09 0.12 0.06 0.00 0.00 0.00
0.00 0.00 0.01 0.00 0.00 0.00 0.00 0.00 0.00 0.00 0.00 0.00 0.00 0.00 0.00 0.00 0.03 0.03 0.03 0.01 0.00 0.00 0.00 0.00 0.00 0.00 0.00 0.00 0.00 0.00 0.00 0.00 0.00 0.01 0.03 0.04 0.08 0.11 0.08 0.01 0.00 0.00 0.01 0.01
0.00 0.05 0.04 0.00 0.00 0.00 0.00 0.01 0.00 0.00 0.01 0.00 0.01 0.03 0.04 0.09 0.09 0.07 0.02 0.00 0.00 0.00 0.00 0.00 0.00 0.00 0.00 0.00 0.00 0.00 0.00 0.00 0.00 0.03 0.09 0.08 0.07 0.02 0.00 0.00 0.00 0.00 0.00 0.00
0.00 0.04 0.01 0.00 0.00 0.00 0.08 0.06 0.02 0.02 0.01 0.01 0.04 0.14 0.14 0.10 0.06 0.01 0.00 0.00 0.00 0.00 0.00 0.00 0.00 0.00 0.00 0.00 0.00 0.00 0.00 0.03 0.07 0.06 0.04 0.04 0.02 0.00 0.00 0.00 0.00 0.00 0.01 0.01
0.03 0.04 0.01 0.00 0.01 0.05 0.04 0.03 0.04 0.03 0.01 0.04 0.13 0.11 0.06 0.02 0.00 0.00 0.00 0.00 0.00 0.00 0.00 0.00 0.00 0.00 0.01 0.01 0.01 0.00 0.02 0.03 0.02 0.04 0.04 0.01 0.00 0.00 0.00 0.00 0.00 0.00 0.01 0.01
0.04 0.02 0.00 0.00 0.01 0.02 0.03 0.04 0.03 0.03 0.08 0.15 0.06 0.03 0.03 0.00 0.00 0.00 0.01 0.01 0.00 0.00 0.00 0.00 0.00 0.01 0.02 0.01 0.00 0.01 0.02 0.03 0.03 0.02 0.00 0.00 0.00 0.00 0.00 0.00 0.00 0.01 0.01 0.02
0.02 0.02 0.00 0.01 0.00 0.01 0.03 0.04 0.05 0.14 0.11 0.02 0.04 0.02 0.01 0.02 0.03 0.02 0.01 0.00 0.01 0.01 0.02 0.03 0.01 0.01 0.00 0.00 0.01 0.01 0.01 0.00 0.00 0.00 0.00 0.00 0.00 0.00 0.00 0.00 0.00 0.00 0.01 0.01
0.05 0.01 0.01 0.02 0.05 0.08 0.12 0.19 0.16 0.05 0.07 0.07 0.02 0.03 0.04 0.03 0.02 0.01 0.01 0.02 0.02 0.01 0.02 0.01 0.00 0.00 0.00 0.00 0.00 0.00 0.00 0.00 0.00 0.00 0.00 0.00 0.00 0.00 0.00 0.00 0.00 0.01 0.01 0.02
0.05 0.05 0.12 0.16 0.18 0.22 0.17 0.06 0.04 0.06 0.03 0.00 0.00 0.00 0.00 0.00 0.01 0.02 0.04 0.02 0.01 0.00 0.01 0.01 0.00 0.00 0.00 0.00 0.00 0.00 0.00 0.00 0.00 0.01 0.01 0.00 0.00 0.00 0.00 0.00 0.00 0.00 0.00 0.01
0.05 0.06 0.10 0.15 0.11 0.04 0.01 0.01 0.01 0.00 0.00 0.00 0.00 0.00 0.01 0.03 0.09 0.07 0.02 0.01 0.01 0.01 0.00 0.00 0.00 0.00 0.00 0.00 0.00 0.00 0.00 0.00 0.01 0.01 0.01 0.01 0.01 0.02 0.02 0.01 0.00 0.00 0.00 0.00
0.01 0.04 0.05 0.03 0.02 0.00 0.00 0.00 0.00 0.00 0.00 0.00 0.02 0.07 0.09 0.10 0.04 0.01 0.02 0.01 0.00 0.00 0.00 0.00 0.00 0.00 0.00 0.00 0.00 0.00 0.00 0.01 0.02 0.01 0.02 0.02 0.02 0.03 0.04 0.04 0.04 0.03 0.02 0.01
0.01 0.01 0.03 0.02 0.00 0.00 0.00 0.00 0.00 0.01 0.03 0.09 0.11 0.11 0.08 0.03 0.01 0.01 0.00 0.00 0.00 0.00 0.00 0.00 0.01 0.00 0.00 0.00 0.00 0.00 0.01 0.01 0.01 0.02 0.02 0.02 0.04 0.05 0.06 0.07 0.06 0.04 0.02 0.01
0.00 0.00 0.00 0.00 0.00 0.00 0.01 0.01 0.06 0.15 0.16 0.14 0.09 0.03 0.00 0.00 0.00 0.00 0.00 0.00 0.00 0.00 0.00 0.00 0.01 0.00 0.00 0.00 0.00 0.01 0.01 0.01 0.02 0.04 0.04 0.04 0.05 0.06 0.08 0.09 0.09 0.07 0.05 0.03
0.00 0.00 0.01 0.02 0.02 0.05 0.12 0.14 0.13 0.11 0.09 0.04 0.00 0.00 0.00 0.00 0.00 0.00 0.00 0.00 0.00 0.00 0.01 0.01 0.00 0.00 0.00 0.00 0.01 0.01 0.02 0.03 0.03 0.05 0.05 0.06 0.07 0.08 0.09 0.12 0.13 0.11 0.08 0.05
0.00 0.00 0.01 0.06 0.13 0.16 0.15 0.11 0.08 0.03 0.00 0.00 0.00 0.00 0.00 0.00 0.00 0.00 0.00 0.00 0.01 0.01 0.00 0.00 0.00 0.00 0.00 0.00 0.01 0.02 0.03 0.04 0.06 0.07 0.07 0.07 0.07 0.08 0.08 0.10 0.10 0.11 0.11 0.10
0.03 0.09 0.14 0.17 0.16 0.11 0.06 0.02 0.00 0.00 0.00 0.00 0.00 0.00 0.00 0.00 0.00 0.00 0.01 0.02 0.02 0.02 0.01 0.00 0.00 0.00 0.00 0.01 0.01 0.03 0.06 0.07 0.07 0.06 0.07 0.08 0.11 0.12 0.16 0.17 0.16 0.16 0.14 0.08
0.10 0.09 0.06 0.03 0.01 0.00 0.00 0.00 0.00 0.00 0.00 0.00 0.00 0.00 0.00 0.00 0.01 0.01 0.02 0.02 0.01 0.03 0.01 0.00 0.00 0.00 0.01 0.01 0.03 0.06 0.08 0.08 0.10 0.11 0.13 0.15 0.16 0.17 0.21 0.27 0.28 0.24 0.18 0.15
0.00 0.00 0.00 0.00 0.00 0.00 0.00 0.00 0.00 0.00 0.00 0.00 0.00 0.01 0.01 0.01 0.02 0.04 0.05 0.03 0.02 0.01 0.00 0.01 0.02 0.01 0.02 0.03 0.04 0.07 0.12 0.15 0.17 0.19 0.22 0.25 0.29 0.30 0.27 0.21 0.20 0.21 0.19 0.17
0.00 0.00 0.00 0.00 0.00 0.00 0.00 0.00 0.00 0.00 0.00 0.00 0.01 0.01 0.02 0.02 0.04 0.04 0.02 0.03 0.02 0.02 0.02 0.02 0.03 0.02 0.03 0.05 0.08 0.12 0.15 0.18 0.19 0.22 0.26 0.26 0.26 0.22 0.19 0.16 0.17 0.15 0.15 0.13
0.00 0.00 0.00 0.00 0.00 0.00 0.00 0.00 0.00 0.00 0.00 0.01 0.02 0.03 0.05 0.04 0.04 0.06 0.05 0.02 0.02 0.02 0.03 0.05 0.04 0.04 0.06 0.09 0.12 0.16 0.18 0.21 0.22 0.21 0.19 0.19 0.18 0.16 0.13 0.10 0.09 0.10 0.10 0.10
0.00 0.00 0.00 0.00 0.00 0.00 0.00 0.00 0.00 0.00 0.00 0.01 0.04 0.05 0.06 0.05 0.04 0.03 0.04 0.03 0.02 0.02 0.04 0.07 0.07 0.07 0.10 0.18 0.18 0.17 0.17 0.16 0.14 0.14 0.14 0.15 0.14 0.13 0.13 0.11 0.10 0.10 0.11 0.10
0.00 0.00 0.00 0.00 0.00 0.00 0.00 0.00 0.00 0.00 0.01 0.03 0.04 0.03 0.02 0.04 0.09 0.03 0.03 0.03 0.03 0.06 0.08 0.10 0.09 0.09 0.13 0.14 0.14 0.14 0.15 0.14 0.11 0.14 0.14 0.14 0.14 0.14 0.13 0.12 0.12 0.11 0.11 0.10
0.00 0.00 0.00 0.00 0.00 0.00 0.00 0.00 0.02 0.02 0.05 0.04 0.04 0.02 0.02 0.03 0.03 0.03 0.04 0.04 0.07 0.08 0.11 0.13 0.11 0.10 0.13 0.14 0.14 0.14 0.14 0.13 0.12 0.13 0.14 0.14 0.14 0.13 0.12 0.11 0.11 0.12 0.13 0.14
0.00 0.00 0.00 0.00 0.00 0.01 0.02 0.04 0.07 0.04 0.04 0.06 0.06 0.02 0.04 0.03 0.03 0.05 0.07 0.09 0.10 0.11 0.12 0.13 0.13 0.13 0.14 0.15 0.14 0.12 0.13 0.13 0.12 0.13 0.14 0.14 0.14 0.13 0.12 0.13 0.15 0.14 0.13 0.15

GFSNGP_prec_precacc_051.txt.gz
Total_Precipitation_Accumulation
0.00 0.00 0.00 0.00 0.00 0.00 0.00 0.00 0.00 0.00 0.00 0.00 0.00 0.00 0.00 0.00 0.00 0.00 0.00 0.00 0.00 0.01 0.03 0.02 0.03 0.07 0.07 0.09 0.09 0.10 0.08 0.05 0.03 0.01 0.01 0.00 0.01 0.01 0.03 0.05 0.02 0.02 0.02 0.01
0.00 0.00 0.00 0.00 0.00 0.00 0.00 0.00 0.00 0.00 0.00 0.00 0.00 0.00 0.00 0.00 0.00 0.00 0.00 0.00 0.00 0.01 0.04 0.04 0.05 0.05 0.06 0.07 0.07 0.07 0.05 0.03 0.02 0.04 0.08 0.10 0.13 0.10 0.10 0.07 0.03 0.02 0.03 0.01
0.00 0.00 0.00 0.00 0.00 0.00 0.00 0.00 0.00 0.00 0.00 0.00 0.00 0.00 0.00 0.00 0.00 0.00 0.00 0.00 0.00 0.00 0.00 0.01 0.02 0.04 0.06 0.06 0.04 0.03 0.01 0.01 0.02 0.05 0.08 0.07 0.05 0.07 0.05 0.05 0.07 0.06 0.01 0.00
0.00 0.00 0.01 0.00 0.00 0.00 0.00 0.00 0.00 0.00 0.00 0.00 0.00 0.00 0.00 0.00 0.00 0.00 0.00 0.00 0.00 0.00 0.00 0.00 0.00 0.00 0.00 0.00 0.01 0.01 0.00 0.00 0.00 0.01 0.02 0.02 0.04 0.09 0.14 0.15 0.06 0.00 0.00 0.00
0.00 0.00 0.01 0.00 0.00 0.00 0.00 0.00 0.00 0.00 0.00 0.00 0.00 0.00 0.00 0.00 0.03 0.03 0.03 0.01 0.00 0.00 0.00 0.00 0.00 0.00 0.00 0.00 0.00 0.00 0.00 0.00 0.00 0.01 0.03 0.05 0.12 0.16 0.10 0.02 0.00 0.00 0.01 0.01
0.00 0.05 0.04 0.00 0.00 0.00 0.00 0.01 0.00 0.00 0.01 0.00 0.01 0.03 0.04 0.09 0.09 0.07 0.02 0.00 0.00 0.00 0.00 0.00 0.00 0.00 0.00 0.00 0.00 0.00 0.00 0.00 0.00 0.04 0.13 0.14 0.10 0.02 0.00 0.00 0.00 0.00 0.00 0.00
0.01 0.04 0.01 0.00 0.00 0.00 0.08 0.06 0.02 0.02 0.01 0.01 0.04 0.14 0.14 0.10 0.06 0.01 0.00 0.00 0.00 0.00 0.00 0.00 0.00 0.00 0.00 0.00 0.00 0.00 0.01 0.06 0.11 0.10 0.06 0.04 0.02 0.00 0.00 0.00 0.00 0.00 0.01 0.01
0.03 0.04 0.01 0.00 0.01 0.05 0.04 0.03 0.04 0.03 0.01 0.04 0.13 0.11 0.06 0.02 0.00 0.00 0.00 0.00 0.00 0.00 0.00 0.00 0.00 0.00 0.01 0.02 0.02 0.02 0.04 0.03 0.02 0.04 0.04 0.01 0.00 0.00 0.00 0.00 0.00 0.00 0.01 0.01
0.04 0.02 0.00 0.00 0.01 0.02 0.03 0.04 0.03 0.03 0.08 0.15 0.06 0.03 0.03 0.00 0.00 0.00 0.01 0.01 0.00 0.00 0.00 0.00 0.00 0.01 0.02 0.01 0.00 0.01 0.02 0.03 0.03 0.02 0.00 0.00 0.00 0.00 0.00 0.00 0.00 0.01 0.01 0.02
0.02 0.02 0.00 0.01 0.00 0.01 0.03 0.04 0.05 0.14 0.11 0.02 0.04 0.02 0.01 0.02 0.03 0.02 0.01 0.00 0.01 0.01 0.02 0.03 0.01 0.01 0.00 0.00 0.01 0.01 0.01 0.00 0.00 0.00 0.00 0.00 0.00 0.00 0.00 0.00 0.00 0.00 0.01 0.01
0.05 0.01 0.01 0.02 0.05 0.08 0.12 0.19 0.16 0.05 0.07 0.07 0.02 0.03 0.04 0.03 0.02 0.01 0.01 0.02 0.02 0.01 0.02 0.01 0.00 0.00 0.00 0.00 0.00 0.00 0.00 0.00 0.00 0.00 0.00 0.00 0.00 0.00 0.00 0.00 0.00 0.01 0.01 0.02
0.05 0.05 0.12 0.16 0.18 0.22 0.17 0.06 0.04 0.06 0.03 0.00 0.00 0.00 0.00 0.00 0.01 0.02 0.04 0.02 0.01 0.00 0.01 0.01 0.00 0.00 0.00 0.00 0.00 0.00 0.00 0.00 0.00 0.01 0.01 0.00 0.00 0.00 0.00 0.00 0.00 0.00 0.00 0.01
0.05 0.06 0.10 0.15 0.11 0.04 0.01 0.01 0.01 0.00 0.00 0.00 0.00 0.00 0.01 0.03 0.09 0.07 0.02 0.01 0.01 0.01 0.00 0.00 0.00 0.00 0.00 0.00 0.00 0.00 0.00 0.00 0.01 0.01 0.01 0.01 0.01 0.02 0.02 0.01 0.00 0.00 0.00 0.01
0.01 0.04 0.05 0.03 0.02 0.00 0.00 0.00 0.00 0.00 0.00 0.00 0.02 0.07 0.09 0.10 0.04 0.01 0.02 0.01 0.00 0.00 0.00 0.00 0.00 0.00 0.00 0.00 0.00 0.00 0.00 0.01 0.02 0.01 0.02 0.02 0.02 0.03 0.04 0.05 0.05 0.03 0.02 0.01
0.01 0.01 0.03 0.02 0.00 0.00 0.00 0.00 0.00 0.01 0.03 0.09 0.11 0.11 0.08 0.03 0.01 0.01 0.00 0.00 0.00 0.00 0.00 0.00 0.01 0.00 0.00 0.00 0.00 0.00 0.01 0.01 0.01 0.02 0.02 0.02 0.04 0.05 0.06 0.07 0.07 0.04 0.03 0.01
0.00 0.00 0.00 0.00 0.00 0.00 0.01 0.01 0.06 0.15 0.16 0.14 0.09 0.03 0.00 0.00 0.00 0.00 0.00 0.00 0.00 0.00 0.00 0.00 0.01 0.00 0.00 0.00 0.00 0.01 0.01 0.01 0.02 0.04 0.04 0.04 0.05 0.07 0.08 0.09 0.10 0.08 0.06 0.04
0.00 0.00 0.01 0.02 0.02 0.05 0.12 0.14 0.13 0.11 0.09 0.04 0.00 0.00 0.00 0.00 0.00 0.00 0.00 0.00 0.00 0.00 0.01 0.01 0.00 0.00 0.00 0.00 0.01 0.01 0.02 0.03 0.03 0.05 0.05 0.06 0.07 0.09 0.10 0.14 0.14 0.11 0.08 0.06
0.00 0.00 0.01 0.06 0.13 0.16 0.15 0.11 0.08 0.03 0.00 0.00 0.00 0.00 0.00 0.00 0.00 0.00 0.00 0.00 0.01 0.01 0.00 0.00 0.00 0.00 0.00 0.00 0.01 0.02 0.03 0.04 0.06 0.08 0.07 0.08 0.08 0.08 0.10 0.12 0.11 0.12 0.14 0.16
0.03 0.09 0.14 0.17 0.16 0.11 0.06 0.02 0.00 0.00 0.00 0.00 0.00 0.00 0.00 0.00 0.00 0.00 0.01 0.02 0.02 0.02 0.01 0.00 0.00 0.00 0.00 0.01 0.01 0.03 0.06 0.08 0.07 0.06 0.07 0.08 0.11 0.13 0.16 0.18 0.17 0.18 0.18 0.15
0.10 0.09 0.06 0.03 0.01 0.00 0.00 0.00 0.00 0.00 0.00 0.00 0.00 0.00 0.00 0.00 0.01 0.01 0.02 0.02 0.01 0.03 0.01 0.00 0.00 0.00 0.01 0.01 0.03 0.06 0.08 0.08 0.10 0.11 0.13 0.15 0.16 0.17 0.22 0.27 0.29 0.26 0.21 0.20
0.00 0.00 0.00 0.00 0.00 0.00 0.00 0.00 0.00 0.00 0.00 0.00 0.00 0.01 0.01 0.01 0.02 0.04 0.05 0.03 0.02 0.01 0.00 0.01 0.02 0.01 0.02 0.03 0.04 0.07 0.12 0.15 0.17 0.19 0.23 0.26 0.29 0.30 0.27 0.21 0.20 0.21 0.20 0.19
0.01 0.02 0.01 0.00 0.00 0.00 0.00 0.00 0.00 0.00 0.00 0.00 0.01 0.01 0.02 0.02 0.04 0.04 0.02 0.03 0.02 0.02 0.02 0.02 0.03 0.02 0.03 0.05 0.08 0.12 0.15 0.18 0.19 0.22 0.26 0.26 0.26 0.22 0.19 0.16 0.17 0.16 0.15 0.14
0.01 0.00 0.00 0.00 0.00 0.00 0.00 0.00 0.00 0.00 0.00 0.01 0.02 0.03 0.05 0.04 0.04 0.06 0.05 0.02 0.02 0.02 0.03 0.05 0.04 0.04 0.06 0.09 0.12 0.16 0.18 0.21 0.22 0.21 0.19 0.19 0.18 0.16 0.13 0.11 0.09 0.10 0.10 0.10
0.00 0.00 0.00 0.00 0.00 0.00 0.00 0.00 0.00 0.00 0.00 0.01 0.04 0.05 0.06 0.05 0.04 0.03 0.04 0.03 0.02 0.02 0.04 0.07 0.07 0.07 0.10 0.18 0.18 0.17 0.17 0.16 0.14 0.14 0.14 0.15 0.14 0.13 0.13 0.11 0.10 0.10 0.11 0.10
0.00 0.00 0.00 0.00 0.00 0.00 0.00 0.00 0.00 0.00 0.01 0.03 0.04 0.03 0.02 0.04 0.09 0.03 0.03 0.03 0.03 0.06 0.08 0.10 0.09 0.09 0.13 0.14 0.14 0.14 0.15 0.14 0.11 0.14 0.14 0.14 0.14 0.14 0.13 0.12 0.12 0.11 0.11 0.10
0.01 0.00 0.00 0.00 0.00 0.00 0.00 0.00 0.02 0.02 0.05 0.04 0.04 0.02 0.02 0.04 0.03 0.03 0.04 0.04 0.07 0.08 0.11 0.13 0.11 0.10 0.13 0.14 0.15 0.14 0.14 0.13 0.12 0.13 0.14 0.14 0.14 0.13 0.12 0.11 0.11 0.12 0.13 0.14
0.01 0.00 0.00 0.00 0.00 0.01 0.02 0.04 0.07 0.04 0.04 0.06 0.06 0.02 0.04 0.04 0.03 0.05 0.07 0.09 0.10 0.11 0.12 0.13 0.13 0.13 0.14 0.15 0.14 0.13 0.13 0.13 0.12 0.13 0.14 0.14 0.14 0.13 0.12 0.13 0.15 0.14 0.13 0.15

GFSNGP_prec_precacc_057.txt.gz
Total_Precipitation_Accumulation
0.00 0.00 0.00 0.00 0.00 0.00 0.00 0.00 0.00 0.00 0.00 0.00 0.00 0.00 0.00 0.00 0.00 0.00 0.00 0.00 0.00 0.01 0.03 0.03 0.05 0.13 0.15 0.17 0.16 0.18 0.17 0.15 0.14 0.10 0.06 0.04 0.03 0.02 0.05 0.10 0.09 0.09 0.06 0.03
0.00 0.00 0.00 0.00 0.00 0.00 0.00 0.00 0.00 0.00 0.00 0.00 0.00 0.00 0.00 0.00 0.00 0.00 0.00 0.00 0.00 0.01 0.04 0.05 0.07 0.10 0.10 0.10 0.09 0.09 0.08 0.07 0.05 0.05 0.09 0.11 0.13 0.12 0.13 0.10 0.05 0.04 0.06 0.04
0.00 0.00 0.00 0.00 0.00 0.00 0.00 0.00 0.00 0.00 0.00 0.00 0.00 0.00 0.00 0.00 0.00 0.00 0.00 0.00 0.00 0.00 0.00 0.01 0.02 0.05 0.06 0.06 0.05 0.03 0.02 0.02 0.03 0.06 0.08 0.07 0.06 0.08 0.06 0.08 0.13 0.14 0.09 0.05
0.00 0.00 0.01 0.00 0.00 0.00 0.00 0.00 0.00 0.00 0.00 0.00 0.00 0.00 0.00 0.00 0.00 0.00 0.00 0.00 0.00 0.00 0.00 0.00 0.00 0.00 0.00 0.00 0.01 0.01 0.00 0.00 0.01 0.01 0.02 0.02 0.05 0.12 0.18 0.24 0.19 0.10 0.03 0.01
0.00 0.00 0.01 0.00 0.00 0.00 0.00 0.00 0.00 0.00 0.00 0.00 0.00 0.00 0.00 0.00 0.03 0.03 0.03 0.01 0.00 0.00 0.00 0.00 0.00 0.00 0.00 0.00 0.00 0.00 0.00 0.00 0.00 0.01 0.04 0.06 0.16 0.27 0.25 0.10 0.02 0.00 0.01 0.01
0.00 0.05 0.04 0.00 0.00 0.00 0.00 0.01 0.00 0.00 0.01 0.00 0.01 0.03 0.04 0.09 0.09 0.07 0.02 0.00 0.00 0.00 0.00 0.00 0.00 0.00 0.00 0.00 0.00 0.00 0.00 0.00 0.00 0.05 0.21 0.27 0.20 0.06 0.00 0.00 0.00 0.00 0.00 0.00
0.01 0.04 0.01 0.00 0.00 0.00 0.08 0.06 0.02 0.02 0.01 0.01 0.04 0.14 0.14 0.10 0.06 0.01 0.00 0.00 0.00 0.00 0.00 0.00 0.00 0.00 0.00 0.00 0.00 0.00 0.02 0.09 0.16 0.17 0.10 0.05 0.02 0.00 0.00 0.00 0.00 0.00 0.01 0.01
0.03 0.04 0.01 0.00 0.01 0.05 0.04 0.03 0.04 0.03 0.01 0.04 0.13 0.11 0.06 0.02 0.00 0.00 0.00 0.00 0.00 0.00 0.00 0.00 0.00 0.00 0.01 0.02 0.02 0.03 0.05 0.04 0.02 0.04 0.04 0.01 0.00 0.00 0.00 0.00 0.00 0.00 0.01 0.01
0.04 0.02 0.00 0.00 0.01 0.02 0.03 0.04 0.03 0.03 0.08 0.15 0.06 0.03 0.03 0.00 0.00 0.00 0.01 0.01 0.00 0.00 0.00 0.00 0.00 0.01 0.02 0.01 0.00 0.01 0.02 0.03 0.03 0.02 0.00 0.00 0.00 0.00 0.00 0.00 0.00 0.01 0.01 0.02
0.02 0.02 0.00 0.01 0.00 0.01 0.03 0.04 0.05 0.14 0.11 0.02 0.04 0.02 0.01 0.02 0.03 0.02 0.01 0.00 0.01 0.01 0.02 0.03 0.01 0.01 0.00 0.00 0.01 0.01 0.01 0.00 0.00 0.00 0.00 0.00 0.00 0.00 0.00 0.00 0.00 0.00 0.01 0.01
0.05 0.01 0.01 0.02 0.05 0.08 0.12 0.19 0.16 0.05 0.07 0.07 0.02 0.03 0.04 0.03 0.02 0.01 0.01 0.02 0.02 0.01 0.02 0.01 0.00 0.00 0.00 0.00 0.00 0.00 0.00 0.00 0.00 0.00 0.00 0.00 0.00 0.00 0.00 0.00 0.00 0.01 0.01 0.03
0.05 0.06 0.12 0.16 0.18 0.22 0.17 0.06 0.04 0.06 0.03 0.00 0.00 0.00 0.00 0.00 0.01 0.02 0.04 0.02 0.01 0.00 0.01 0.01 0.00 0.00 0.00 0.00 0.00 0.00 0.00 0.00 0.00 0.01 0.01 0.00 0.00 0.00 0.00 0.00 0.00 0.00 0.00 0.01
0.05 0.06 0.10 0.15 0.11 0.04 0.01 0.01 0.01 0.00 0.00 0.00 0.00 0.00 0.01 0.03 0.09 0.07 0.02 0.01 0.01 0.01 0.00 0.00 0.00 0.00 0.00 0.00 0.00 0.00 0.00 0.00 0.01 0.01 0.01 0.01 0.01 0.02 0.02 0.01 0.00 0.00 0.00 0.01
0.01 0.04 0.05 0.03 0.02 0.00 0.00 0.00 0.00 0.00 0.00 0.00 0.02 0.07 0.09 0.10 0.04 0.01 0.02 0.01 0.00 0.00 0.00 0.00 0.00 0.00 0.00 0.00 0.00 0.00 0.00 0.01 0.02 0.01 0.02 0.02 0.02 0.03 0.04 0.05 0.05 0.03 0.02 0.01
0.01 0.01 0.03 0.02 0.00 0.00 0.00 0.00 0.00 0.01 0.03 0.09 0.11 0.11 0.08 0.03 0.01 0.01 0.00 0.00 0.00 0.00 0.00 0.00 0.01 0.00 0.00 0.00 0.00 0.00 0.01 0.01 0.01 0.02 0.02 0.02 0.04 0.06 0.07 0.08 0.08 0.05 0.03 0.01
0.00 0.00 0.00 0.00 0.00 0.00 0.01 0.01 0.06 0.15 0.16 0.14 0.09 0.03 0.00 0.00 0.00 0.00 0.00 0.00 0.00 0.00 0.00 0.00 0.01 0.00 0.00 0.00 0.00 0.01 0.01 0.01 0.02 0.04 0.04 0.04 0.05 0.07 0.08 0.10 0.10 0.08 0.06 0.04
0.00 0.00 0.01 0.02 0.02 0.05 0.12 0.14 0.13 0.11 0.09 0.04 0.00 0.00 0.00 0.00 0.00 0.00 0.00 0.00 0.00 0.00 0.01 0.01 0.00 0.00 0.00 0.00 0.01 0.01 0.02 0.03 0.03 0.05 0.05 0.06 0.07 0.09 0.10 0.15 0.14 0.11 0.09 0.07
0.00 0.00 0.01 0.06 0.13 0.16 0.15 0.11 0.08 0.03 0.00 0.00 0.00 0.00 0.00 0.00 0.00 0.00 0.00 0.00 0.01 0.01 0.00 0.00 0.00 0.00 0.00 0.00 0.01 0.02 0.03 0.04 0.06 0.08 0.07 0.08 0.08 0.08 0.11 0.12 0.11 0.13 0.14 0.16
0.05 0.10 0.15 0.18 0.16 0.12 0.08 0.04 0.03 0.05 0.07 0.08 0.05 0.01 0.00 0.00 0.00 0.00 0.01 0.02 0.02 0.02 0.01 0.00 0.00 0.00 0.00 0.01 0.01 0.03 0.06 0.08 0.07 0.06 0.07 0.08 0.11 0.13 0.17 0.18 0.17 0.19 0.18 0.15
0.23 0.20 0.14 0.10 0.10 0.09 0.12 0.17 0.18 0.18 0.14 0.06 0.01 0.00 0.00 0.00 0.01 0.01 0.02 0.02 0.01 0.03 0.01 0.00 0.00 0.00 0.01 0.01 0.03 0.06 0.08 0.08 0.10 0.11 0.13 0.15 0.16 0.17 0.22 0.27 0.29 0.26 0.21 0.20
0.08 0.11 0.15 0.17 0.19 0.21 0.19 0.14 0.08 0.03 0.00 0.00 0.00 0.01 0.01 0.01 0.02 0.04 0.05 0.03 0.02 0.01 0.00 0.01 0.02 0.01 0.02 0.03 0.04 0.07 0.12 0.15 0.17 0.19 0.23 0.26 0.29 0.30 0.27 0.21 0.20 0.21 0.20 0.19
0.15 0.17 0.18 0.15 0.11 0.09 0.05 0.01 0.00 0.00 0.00 0.00 0.01 0.01 0.02 0.02 0.04 0.04 0.02 0.03 0.02 0.02 0.02 0.02 0.03 0.02 0.03 0.05 0.08 0.12 0.15 0.18 0.19 0.22 0.26 0.26 0.26 0.22 0.19 0.16 0.17 0.16 0.15 0.14
0.12 0.08 0.06 0.04 0.01 0.00 0.00 0.00 0.00 0.00 0.00 0.01 0.02 0.03 0.05 0.04 0.04 0.06 0.06 0.03 0.02 0.02 0.03 0.05 0.04 0.04 0.06 0.09 0.12 0.16 0.18 0.21 0.22 0.22 0.19 0.19 0.18 0.16 0.13 0.11 0.09 0.10 0.10 0.10
0.05 0.04 0.03 0.01 0.00 0.00 0.00 0.00 0.00 0.00 0.00 0.01 0.04 0.05 0.06 0.05 0.04 0.03 0.04 0.03 0.02 0.02 0.04 0.07 0.07 0.07 0.10 0.18 0.18 0.17 0.17 0.16 0.14 0.14 0.14 0.15 0.14 0.13 0.13 0.11 0.10 0.10 0.11 0.10
0.07 0.08 0.06 0.04 0.03 0.03 0.01 0.00 0.00 0.00 0.01 0.03 0.04 0.03 0.02 0.04 0.09 0.03 0.03 0.03 0.03 0.06 0.08 0.10 0.09 0.09 0.13 0.14 0.15 0.14 0.15 0.14 0.11 0.14 0.14 0.14 0.14 0.14 0.13 0.12 0.12 0.11 0.11 0.10
0.10 0.07 0.06 0.04 0.04 0.02 0.01 0.01 0.02 0.02 0.05 0.04 0.04 0.02 0.02 0.04 0.03 0.03 0.04 0.04 0.07 0.08 0.12 0.13 0.11 0.10 0.13 0.14 0.15 0.14 0.15 0.14 0.12 0.13 0.14 0.14 0.14 0.13 0.12 0.11 0.11 0.12 0.13 0.14
0.10 0.09 0.06 0.05 0.03 0.02 0.03 0.05 0.07 0.04 0.04 0.06 0.06 0.02 0.05 0.04 0.03 0.05 0.07 0.09 0.10 0.11 0.13 0.13 0.13 0.13 0.14 0.15 0.14 0.13 0.13 0.13 0.13 0.13 0.14 0.14 0.14 0.13 0.12 0.13 0.15 0.14 0.13 0.15

GFSNGP_prec_precacc_060.txt.gz
Total_Precipitation_Accumulation
0.00 0.00 0.00 0.00 0.00 0.00 0.00 0.00 0.00 0.00 0.00 0.00 0.00 0.00 0.00 0.00 0.00 0.00 0.00 0.00 0.00 0.01 0.03 0.03 0.05 0.13 0.15 0.18 0.18 0.20 0.19 0.16 0.15 0.11 0.07 0.04 0.04 0.03 0.06 0.10 0.09 0.09 0.08 0.07
0.00 0.00 0.00 0.00 0.00 0.00 0.00 0.00 0.00 0.00 0.00 0.00 0.00 0.00 0.00 0.00 0.00 0.00 0.00 0.00 0.00 0.01 0.04 0.05 0.07 0.11 0.13 0.13 0.14 0.13 0.10 0.08 0.05 0.05 0.09 0.11 0.13 0.12 0.13 0.10 0.05 0.04 0.08 0.09
0.00 0.00 0.00 0.00 0.00 0.00 0.00 0.00 0.00 0.00 0.00 0.00 0.00 0.00 0.00 0.00 0.00 0.00 0.00 0.00 0.00 0.00 0.00 0.01 0.02 0.05 0.06 0.06 0.06 0.04 0.02 0.02 0.03 0.06 0.08 0.07 0.06 0.08 0.06 0.08 0.14 0.17 0.15 0.10
0.00 0.00 0.01 0.00 0.00 0.00 0.00 0.00 0.00 0.00 0.00 0.00 0.00 0.00 0.00 0.00 0.00 0.00 0.00 0.00 0.00 0.00 0.00 0.00 0.00 0.00 0.00 0.00 0.01 0.01 0.00 0.00 0.01 0.01 0.02 0.02 0.05 0.12 0.18 0.25 0.22 0.13 0.05 0.01
0.00 0.00 0.01 0.00 0.00 0.00 0.00 0.00 0.00 0.00 0.00 0.00 0.00 0.00 0.00 0.00 0.03 0.03 0.03 0.01 0.00 0.00 0.00 0.00 0.00 0.00 0.00 0.00 0.00 0.00 0.00 0.00 0.00 0.01 0.04 0.06 0.16 0.28 0.26 0.11 0.02 0.00 0.01 0.01
0.00 0.05 0.04 0.00 0.00 0.00 0.00 0.01 0.00 0.00 0.01 0.00 0.01 0.03 0.04 0.09 0.09 0.07 0.02 0.00 0.00 0.00 0.00 0.00 0.00 0.00 0.00 0.00 0.00 0.00 0.00 0.00 0.00 0.05 0.21 0.27 0.21 0.07 0.00 0.00 0.00 0.00 0.00 0.00
0.01 0.04 0.01 0.00 0.00 0.00 0.08 0.06 0.02 0.02 0.01 0.01 0.04 0.14 0.14 0.10 0.06 0.01 0.00 0.00 0.00 0.00 0.00 0.00 0.00 0.00 0.00 0.00 0.00 0.00 0.02 0.09 0.16 0.17 0.10 0.05 0.02 0.00 0.00 0.00 0.00 0.00 0.01 0.01
0.03 0.04 0.01 0.00 0.01 0.05 0.04 0.03 0.04 0.03 0.01 0.04 0.13 0.11 0.06 0.02 0.00 0.00 0.00 0.00 0.00 0.00 0.00 0.00 0.00 0.00 0.01 0.02 0.02 0.03 0.05 0.04 0.02 0.04 0.04 0.01 0.00 0.00 0.00 0.00 0.00 0.00 0.01 0.01
0.04 0.02 0.00 0.00 0.01 0.02 0.03 0.04 0.03 0.03 0.08 0.15 0.06 0.03 0.03 0.00 0.00 0.00 0.01 0.01 0.00 0.00 0.00 0.00 0.00 0.01 0.02 0.01 0.00 0.01 0.02 0.03 0.03 0.02 0.00 0.00 0.00 0.00 0.00 0.00 0.00 0.01 0.01 0.02
0.02 0.02 0.00 0.01 0.00 0.01 0.03 0.04 0.05 0.14 0.11 0.02 0.04 0.02 0.01 0.02 0.03 0.02 0.01 0.00 0.01 0.01 0.02 0.03 0.01 0.01 0.00 0.00 0.01 0.01 0.01 0.00 0.00 0.00 0.00 0.00 0.00 0.00 0.00 0.00 0.00 0.00 0.01 0.01
0.05 0.01 0.01 0.02 0.05 0.08 0.12 0.19 0.16 0.05 0.07 0.07 0.02 0.03 0.04 0.03 0.02 0.01 0.01 0.02 0.02 0.01 0.02 0.01 0.00 0.00 0.00 0.00 0.00 0.00 0.00 0.00 0.00 0.00 0.00 0.00 0.00 0.00 0.00 0.00 0.00 0.01 0.01 0.03
0.05 0.06 0.12 0.16 0.18 0.22 0.17 0.06 0.04 0.06 0.03 0.00 0.00 0.00 0.00 0.00 0.01 0.02 0.04 0.02 0.01 0.00 0.01 0.01 0.00 0.00 0.00 0.00 0.00 0.00 0.00 0.00 0.00 0.01 0.01 0.00 0.00 0.00 0.00 0.00 0.00 0.00 0.00 0.01
0.05 0.06 0.10 0.15 0.11 0.04 0.01 0.01 0.01 0.00 0.00 0.00 0.00 0.00 0.01 0.03 0.09 0.07 0.02 0.01 0.01 0.01 0.00 0.00 0.00 0.00 0.00 0.00 0.00 0.00 0.00 0.00 0.01 0.01 0.01 0.01 0.01 0.02 0.02 0.01 0.00 0.00 0.00 0.01
0.01 0.04 0.05 0.03 0.02 0.00 0.00 0.00 0.00 0.00 0.00 0.00 0.02 0.07 0.09 0.10 0.04 0.01 0.02 0.01 0.00 0.00 0.00 0.00 0.00 0.00 0.00 0.00 0.00 0.00 0.00 0.01 0.02 0.01 0.02 0.02 0.02 0.03 0.04 0.05 0.05 0.03 0.02 0.01
0.01 0.01 0.03 0.02 0.00 0.00 0.00 0.00 0.00 0.01 0.03 0.09 0.11 0.11 0.08 0.03 0.01 0.01 0.00 0.00 0.00 0.00 0.00 0.00 0.01 0.00 0.00 0.00 0.00 0.00 0.01 0.01 0.01 0.02 0.02 0.02 0.04 0.06 0.07 0.08 0.08 0.05 0.03 0.01
0.00 0.00 0.00 0.00 0.00 0.00 0.01 0.01 0.06 0.15 0.16 0.14 0.09 0.03 0.00 0.00 0.00 0.00 0.00 0.00 0.00 0.00 0.00 0.00 0.01 0.00 0.00 0.00 0.00 0.01 0.01 0.01 0.02 0.04 0.04 0.04 0.05 0.07 0.08 0.10 0.10 0.08 0.06 0.04
0.00 0.00 0.01 0.02 0.02 0.05 0.12 0.14 0.13 0.11 0.09 0.04 0.00 0.00 0.00 0.00 0.00 0.00 0.00 0.00 0.00 0.00 0.01 0.01 0.00 0.00 0.00 0.00 0.01 0.01 0.02 0.03 0.03 0.05 0.05 0.06 0.07 0.09 0.10 0.15 0.14 0.11 0.09 0.07
0.00 0.00 0.01 0.06 0.13 0.16 0.15 0.11 0.08 0.03 0.00 0.00 0.01 0.02 0.03 0.06 0.07 0.05 0.03 0.02 0.01 0.01 0.00 0.00 0.00 0.00 0.00 0.00 0.01 0.02 0.03 0.04 0.06 0.08 0.07 0.08 0.08 0.08 0.11 0.12 0.11 0.13 0.14 0.16
0.05 0.10 0.15 0.18 0.16 0.12 0.08 0.05 0.04 0.06 0.09 0.13 0.16 0.19 0.19 0.16 0.12 0.09 0.06 0.04 0.03 0.02 0.01 0.00 0.00 0.00 0.00 0.01 0.01 0.03 0.06 0.08 0.07 0.06 0.07 0.08 0.11 0.13 0.17 0.18 0.17 0.19 0.18 0.15
0.27 0.27 0.23 0.19 0.17 0.15 0.19 0.27 0.33 0.37 0.36 0.30 0.22 0.16 0.11 0.06 0.05 0.04 0.04 0.02 0.01 0.03 0.01 0.00 0.00 0.00 0.01 0.01 0.03 0.06 0.08 0.08 0.10 0.11 0.13 0.15 0.16 0.17 0.22 0.27 0.29 0.26 0.21 0.20
0.26 0.29 0.28 0.31 0.40 0.45 0.42 0.37 0.29 0.22 0.17 0.10 0.07 0.05 0.05 0.04 0.04 0.05 0.05 0.03 0.02 0.01 0.00 0.01 0.02 0.01 0.02 0.03 0.04 0.07 0.12 0.15 0.17 0.19 0.23 0.26 0.29 0.30 0.27 0.21 0.20 0.21 0.20 0.19
0.25 0.26 0.27 0.25 0.23 0.25 0.22 0.17 0.10 0.07 0.05 0.03 0.04 0.04 0.04 0.03 0.04 0.04 0.02 0.03 0.02 0.02 0.02 0.02 0.03 0.02 0.03 0.05 0.08 0.12 0.15 0.18 0.19 0.22 0.26 0.26 0.26 0.22 0.19 0.16 0.17 0.16 0.15 0.14
0.22 0.17 0.15 0.13 0.07 0.05 0.05 0.02 0.02 0.02 0.02 0.02 0.04 0.04 0.05 0.04 0.04 0.06 0.06 0.03 0.02 0.02 0.03 0.05 0.04 0.04 0.06 0.09 0.12 0.16 0.18 0.21 0.22 0.22 0.20 0.19 0.18 0.16 0.13 0.11 0.09 0.10 0.11 0.10
0.10 0.09 0.07 0.04 0.01 0.01 0.01 0.01 0.01 0.01 0.00 0.02 0.04 0.05 0.06 0.05 0.04 0.03 0.04 0.03 0.02 0.02 0.04 0.07 0.07 0.07 0.10 0.18 0.18 0.17 0.17 0.17 0.14 0.14 0.15 0.15 0.15 0.13 0.13 0.11 0.10 0.10 0.11 0.10
0.10 0.12 0.10 0.08 0.06 0.06 0.04 0.02 0.00 0.00 0.01 0.03 0.04 0.03 0.02 0.04 0.09 0.03 0.03 0.03 0.03 0.06 0.08 0.10 0.09 0.09 0.13 0.14 0.15 0.14 0.15 0.14 0.11 0.14 0.14 0.15 0.14 0.14 0.13 0.12 0.12 0.11 0.11 0.10
0.14 0.11 0.10 0.07 0.07 0.05 0.04 0.02 0.02 0.02 0.05 0.04 0.04 0.03 0.03 0.04 0.03 0.03 0.04 0.04 0.07 0.08 0.12 0.13 0.11 0.11 0.14 0.14 0.15 0.15 0.15 0.14 0.12 0.14 0.15 0.14 0.14 0.14 0.12 0.11 0.11 0.12 0.13 0.14
0.13 0.12 0.08 0.07 0.06 0.05 0.05 0.06 0.08 0.05 0.05 0.07 0.07 0.03 0.05 0.05 0.04 0.06 0.07 0.09 0.10 0.11 0.13 0.13 0.13 0.14 0.14 0.15 0.14 0.13 0.13 0.13 0.13 0.13 0.14 0.15 0.14 0.13 0.12 0.13 0.15 0.14 0.13 0.15

GFSNGP_prec_precacc_063.txt.gz
Total_Precipitation_Accumulation
0.00 0.00 0.00 0.00 0.00 0.00 0.00 0.00 0.00 0.00 0.00 0.00 0.00 0.00 0.00 0.00 0.00 0.00 0.00 0.00 0.00 0.01 0.03 0.03 0.05 0.13 0.15 0.18 0.18 0.21 0.19 0.18 0.18 0.14 0.09 0.06 0.04 0.04 0.06 0.10 0.09 0.09 0.08 0.08
0.00 0.00 0.00 0.00 0.00 0.00 0.00 0.00 0.00 0.00 0.00 0.00 0.00 0.00 0.00 0.00 0.00 0.00 0.00 0.00 0.00 0.01 0.04 0.05 0.07 0.11 0.13 0.15 0.16 0.15 0.12 0.14 0.11 0.10 0.10 0.12 0.13 0.12 0.13 0.10 0.05 0.04 0.08 0.09
0.00 0.00 0.00 0.00 0.00 0.00 0.00 0.00 0.00 0.00 0.00 0.00 0.00 0.00 0.00 0.00 0.00 0.00 0.00 0.00 0.00 0.00 0.00 0.01 0.02 0.05 0.07 0.07 0.08 0.05 0.05 0.03 0.03 0.06 0.09 0.07 0.06 0.08 0.06 0.08 0.14 0.17 0.16 0.11
0.00 0.00 0.01 0.00 0.00 0.00 0.00 0.00 0.00 0.00 0.00 0.00 0.00 0.00 0.00 0.00 0.00 0.00 0.00 0.00 0.00 0.00 0.00 0.00 0.00 0.00 0.01 0.00 0.01 0.01 0.00 0.00 0.01 0.01 0.02 0.02 0.05 0.12 0.18 0.25 0.22 0.13 0.05 0.01
0.00 0.00 0.01 0.00 0.00 0.00 0.00 0.00 0.00 0.00 0.00 0.00 0.00 0.00 0.00 0.00 0.03 0.03 0.03 0.01 0.00 0.00 0.00 0.00 0.00 0.00 0.00 0.00 0.00 0.00 0.00 0.00 0.00 0.01 0.04 0.06 0.16 0.28 0.26 0.11 0.02 0.00 0.01 0.01
0.01 0.05 0.04 0.00 0.00 0.00 0.00 0.01 0.00 0.00 0.01 0.00 0.01 0.03 0.04 0.09 0.09 0.07 0.02 0.00 0.00 0.00 0.00 0.00 0.00 0.00 0.00 0.00 0.00 0.00 0.00 0.00 0.00 0.05 0.21 0.27 0.21 0.07 0.00 0.00 0.00 0.00 0.00 0.00
0.03 0.04 0.01 0.00 0.00 0.00 0.08 0.06 0.02 0.02 0.01 0.01 0.04 0.14 0.14 0.10 0.06 0.01 0.00 0.00 0.00 0.00 0.00 0.00 0.00 0.00 0.00 0.00 0.00 0.00 0.02 0.09 0.16 0.17 0.10 0.05 0.02 0.00 0.00 0.00 0.00 0.00 0.01 0.01
0.05 0.05 0.01 0.00 0.01 0.05 0.04 0.03 0.04 0.03 0.01 0.04 0.13 0.11 0.06 0.02 0.00 0.00 0.00 0.00 0.00 0.00 0.00 0.00 0.00 0.00 0.01 0.02 0.02 0.03 0.05 0.04 0.02 0.04 0.04 0.01 0.00 0.00 0.00 0.00 0.00 0.00 0.01 0.01
0.05 0.02 0.00 0.00 0.01 0.02 0.03 0.04 0.03 0.03 0.08 0.15 0.06 0.03 0.03 0.00 0.00 0.00 0.01 0.01 0.00 0.00 0.00 0.00 0.00 0.01 0.02 0.01 0.00 0.01 0.02 0.03 0.03 0.02 0.00 0.00 0.00 0.00 0.00 0.00 0.00 0.01 0.01 0.02
0.03 0.02 0.00 0.01 0.00 0.01 0.03 0.04 0.05 0.14 0.11 0.02 0.04 0.02 0.01 0.02 0.03 0.02 0.01 0.00 0.01 0.01 0.02 0.03 0.01 0.01 0.00 0.00 0.01 0.01 0.01 0.00 0.00 0.00 0.00 0.00 0.00 0.00 0.00 0.00 0.00 0.00 0.01 0.01
0.05 0.01 0.01 0.02 0.05 0.08 0.12 0.19 0.16 0.05 0.07 0.07 0.02 0.03 0.04 0.03 0.02 0.01 0.01 0.02 0.02 0.01 0.02 0.01 0.00 0.00 0.00 0.00 0.00 0.00 0.00 0.00 0.00 0.00 0.00 0.00 0.00 0.00 0.00 0.00 0.00 0.01 0.01 0.03
0.05 0.06 0.12 0.16 0.18 0.22 0.17 0.06 0.04 0.06 0.03 0.00 0.00 0.00 0.00 0.00 0.01 0.02 0.04 0.02 0.01 0.00 0.01 0.01 0.00 0.00 0.00 0.00 0.00 0.00 0.00 0.00 0.00 0.01 0.01 0.00 0.00 0.00 0.00 0.00 0.00 0.00 0.00 0.01
0.05 0.06 0.10 0.15 0.11 0.04 0.01 0.01 0.01 0.00 0.00 0.00 0.00 0.00 0.01 0.03 0.09 0.07 0.02 0.01 0.01 0.01 0.00 0.00 0.00 0.00 0.00 0.00 0.00 0.00 0.00 0.00 0.01 0.01 0.01 0.01 0.01 0.02 0.02 0.01 0.00 0.00 0.00 0.01
0.01 0.04 0.05 0.03 0.02 0.00 0.00 0.00 0.00 0.00 0.00 0.00 0.02 0.07 0.09 0.10 0.04 0.01 0.02 0.01 0.00 0.00 0.00 0.00 0.00 0.00 0.00 0.00 0.00 0.00 0.00 0.01 0.02 0.01 0.02 0.02 0.02 0.03 0.04 0.05 0.05 0.03 0.02 0.01
0.01 0.01 0.03 0.02 0.00 0.00 0.00 0.00 0.00 0.01 0.03 0.09 0.11 0.11 0.08 0.03 0.01 0.01 0.00 0.00 0.00 0.00 0.00 0.00 0.01 0.00 0.00 0.00 0.00 0.00 0.01 0.01 0.01 0.02 0.02 0.02 0.04 0.06 0.07 0.08 0.08 0.05 0.03 0.01
0.00 0.00 0.00 0.00 0.00 0.00 0.01 0.01 0.06 0.15 0.16 0.14 0.09 0.03 0.00 0.00 0.00 0.00 0.00 0.00 0.00 0.00 0.00 0.01 0.01 0.00 0.00 0.00 0.00 0.01 0.01 0.01 0.02 0.04 0.04 0.04 0.05 0.07 0.08 0.10 0.10 0.08 0.06 0.04
0.00 0.00 0.01 0.02 0.02 0.05 0.12 0.14 0.13 0.11 0.09 0.04 0.00 0.00 0.00 0.00 0.00 0.00 0.00 0.00 0.00 0.01 0.01 0.01 0.01 0.01 0.02 0.01 0.01 0.01 0.02 0.03 0.03 0.05 0.05 0.06 0.07 0.09 0.10 0.15 0.14 0.11 0.09 0.07
0.00 0.00 0.01 0.06 0.13 0.16 0.15 0.11 0.08 0.03 0.00 0.00 0.01 0.02 0.03 0.06 0.08 0.09 0.08 0.07 0.07 0.06 0.05 0.05 0.04 0.04 0.01 0.00 0.01 0.02 0.03 0.04 0.06 0.08 0.07 0.08 0.08 0.08 0.11 0.12 0.11 0.13 0.14 0.16
0.05 0.10 0.15 0.18 0.16 0.12 0.08 0.05 0.04 0.06 0.10 0.15 0.20 0.26 0.28 0.29 0.28 0.25 0.20 0.17 0.16 0.14 0.08 0.02 0.01 0.01 0.00 0.01 0.01 0.03 0.06 0.08 0.07 0.06 0.07 0.08 0.11 0.13 0.17 0.18 0.17 0.19 0.18 0.15
0.28 0.28 0.25 0.22 0.20 0.18 0.22 0.31 0.38 0.46 0.52 0.49 0.44 0.39 0.35 0.30 0.26 0.23 0.19 0.14 0.07 0.05 0.01 0.00 0.00 0.00 0.01 0.01 0.03 0.06 0.08 0.08 0.10 0.11 0.13 0.15 0.16 0.17 0.22 0.27 0.29 0.26 0.21 0.20
0.33 0.37 0.37 0.40 0.51 0.62 0.62 0.60 0.50 0.45 0.43 0.33 0.27 0.27 0.25 0.23 0.18 0.14 0.11 0.07 0.03 0.01 0.00 0.01 0.02 0.01 0.02 0.03 0.04 0.07 0.12 0.15 0.17 0.19 0.23 0.26 0.30 0.30 0.27 0.21 0.21 0.21 0.21 0.19
0.31 0.31 0.33 0.31 0.27 0.33 0.34 0.30 0.21 0.20 0.18 0.17 0.16 0.14 0.12 0.10 0.10 0.07 0.03 0.03 0.02 0.02 0.02 0.02 0.03 0.02 0.03 0.05 0.08 0.12 0.15 0.18 0.19 0.22 0.26 0.26 0.26 0.22 0.19 0.16 0.17 0.16 0.16 0.15
0.26 0.21 0.19 0.16 0.10 0.11 0.12 0.10 0.10 0.07 0.07 0.09 0.10 0.10 0.09 0.06 0.05 0.06 0.06 0.03 0.02 0.02 0.03 0.05 0.04 0.04 0.06 0.09 0.13 0.16 0.18 0.22 0.22 0.22 0.20 0.20 0.18 0.16 0.14 0.11 0.10 0.11 0.11 0.11
0.14 0.14 0.12 0.09 0.04 0.03 0.04 0.05 0.03 0.03 0.02 0.03 0.05 0.05 0.06 0.05 0.04 0.03 0.04 0.03 0.02 0.02 0.04 0.07 0.07 0.07 0.10 0.18 0.18 0.17 0.17 0.17 0.14 0.15 0.15 0.15 0.15 0.14 0.13 0.12 0.11 0.10 0.11 0.10
0.15 0.17 0.15 0.12 0.09 0.09 0.06 0.04 0.01 0.01 0.01 0.03 0.04 0.03 0.02 0.04 0.09 0.04 0.03 0.03 0.03 0.06 0.09 0.10 0.09 0.09 0.13 0.14 0.15 0.14 0.16 0.15 0.12 0.15 0.15 0.15 0.15 0.15 0.13 0.13 0.12 0.11 0.11 0.10
0.17 0.13 0.12 0.09 0.09 0.07 0.05 0.03 0.03 0.03 0.05 0.04 0.04 0.03 0.03 0.04 0.04 0.04 0.04 0.05 0.07 0.08 0.12 0.14 0.11 0.11 0.14 0.14 0.15 0.15 0.15 0.14 0.13 0.14 0.15 0.15 0.15 0.14 0.13 0.12 0.11 0.12 0.14 0.14
0.15 0.13 0.09 0.07 0.07 0.06 0.05 0.07 0.08 0.06 0.06 0.07 0.08 0.04 0.06 0.06 0.05 0.06 0.08 0.10 0.11 0.12 0.13 0.14 0.13 0.14 0.15 0.16 0.15 0.13 0.14 0.14 0.13 0.14 0.15 0.15 0.14 0.13 0.12 0.14 0.15 0.14 0.13 0.16

GFSNGP_prec_precacc_069.txt.gz
Total_Precipitation_Accumulation
0.00 0.00 0.00 0.00 0.00 0.00 0.00 0.00 0.00 0.00 0.00 0.00 0.00 0.00 0.00 0.00 0.00 0.00 0.00 0.00 0.00 0.01 0.03 0.03 0.05 0.13 0.16 0.21 0.22 0.28 0.26 0.27 0.27 0.24 0.23 0.12 0.09 0.10 0.12 0.13 0.11 0.10 0.09 0.08
0.00 0.00 0.00 0.00 0.00 0.00 0.00 0.00 0.00 0.00 0.00 0.00 0.00 0.00 0.00 0.00 0.00 0.00 0.00 0.00 0.00 0.01 0.04 0.05 0.07 0.11 0.15 0.16 0.18 0.19 0.16 0.20 0.18 0.20 0.18 0.19 0.22 0.14 0.15 0.11 0.06 0.05 0.08 0.09
0.00 0.00 0.00 0.00 0.00 0.00 0.00 0.00 0.00 0.00 0.00 0.00 0.00 0.00 0.00 0.00 0.00 0.00 0.00 0.00 0.00 0.00 0.01 0.03 0.05 0.05 0.08 0.08 0.09 0.08 0.11 0.09 0.10 0.12 0.13 0.10 0.08 0.08 0.06 0.08 0.14 0.17 0.16 0.11
0.00 0.00 0.01 0.00 0.00 0.00 0.00 0.00 0.00 0.00 0.00 0.00 0.00 0.00 0.00 0.00 0.00 0.00 0.00 0.00 0.00 0.01 0.02 0.00 0.00 0.00 0.01 0.01 0.02 0.01 0.01 0.01 0.01 0.01 0.02 0.02 0.05 0.12 0.18 0.25 0.22 0.13 0.05 0.01
0.02 0.02 0.01 0.00 0.00 0.00 0.00 0.00 0.00 0.00 0.00 0.00 0.00 0.00 0.00 0.00 0.03 0.03 0.03 0.01 0.00 0.00 0.00 0.00 0.00 0.00 0.00 0.00 0.00 0.00 0.00 0.00 0.00 0.01 0.04 0.06 0.16 0.28 0.26 0.11 0.02 0.00 0.01 0.01
0.03 0.06 0.04 0.00 0.00 0.00 0.00 0.01 0.00 0.00 0.01 0.00 0.01 0.03 0.04 0.09 0.09 0.07 0.02 0.00 0.00 0.00 0.00 0.00 0.00 0.00 0.00 0.00 0.00 0.00 0.00 0.00 0.00 0.05 0.21 0.27 0.21 0.07 0.00 0.00 0.00 0.00 0.00 0.00
0.08 0.06 0.01 0.00 0.00 0.00 0.08 0.06 0.02 0.02 0.01 0.01 0.04 0.14 0.14 0.10 0.06 0.01 0.00 0.00 0.00 0.00 0.00 0.00 0.00 0.00 0.00 0.00 0.00 0.00 0.02 0.09 0.16 0.17 0.10 0.05 0.02 0.00 0.00 0.00 0.00 0.00 0.01 0.01
0.11 0.09 0.02 0.00 0.01 0.05 0.04 0.03 0.04 0.03 0.01 0.04 0.13 0.11 0.06 0.02 0.00 0.00 0.00 0.00 0.00 0.00 0.00 0.00 0.00 0.00 0.01 0.02 0.02 0.03 0.05 0.04 0.02 0.04 0.04 0.01 0.00 0.00 0.00 0.00 0.00 0.00 0.01 0.01
0.06 0.02 0.00 0.00 0.01 0.02 0.03 0.04 0.03 0.03 0.08 0.15 0.06 0.03 0.03 0.00 0.00 0.00 0.01 0.01 0.00 0.00 0.00 0.00 0.00 0.01 0.02 0.01 0.00 0.01 0.02 0.03 0.03 0.02 0.00 0.00 0.00 0.00 0.00 0.00 0.00 0.01 0.01 0.02
0.12 0.03 0.03 0.06 0.03 0.02 0.03 0.04 0.05 0.14 0.12 0.03 0.05 0.03 0.01 0.02 0.03 0.02 0.01 0.00 0.01 0.01 0.02 0.03 0.01 0.01 0.00 0.00 0.01 0.01 0.01 0.00 0.00 0.00 0.00 0.00 0.00 0.00 0.00 0.00 0.00 0.00 0.01 0.01
0.09 0.05 0.07 0.09 0.12 0.10 0.12 0.19 0.16 0.05 0.07 0.07 0.02 0.03 0.04 0.03 0.02 0.01 0.01 0.02 0.02 0.01 0.02 0.01 0.00 0.00 0.00 0.00 0.00 0.00 0.00 0.00 0.00 0.00 0.00 0.00 0.00 0.00 0.00 0.00 0.00 0.01 0.01 0.03
0.05 0.06 0.13 0.17 0.18 0.22 0.17 0.06 0.04 0.06 0.03 0.00 0.00 0.00 0.00 0.00 0.01 0.02 0.04 0.02 0.01 0.00 0.01 0.01 0.00 0.00 0.00 0.00 0.00 0.00 0.00 0.00 0.00 0.01 0.01 0.00 0.00 0.00 0.00 0.00 0.00 0.00 0.00 0.01
0.05 0.06 0.10 0.15 0.12 0.05 0.01 0.01 0.01 0.00 0.00 0.01 0.00 0.00 0.01 0.03 0.09 0.07 0.02 0.01 0.01 0.01 0.00 0.00 0.00 0.00 0.00 0.00 0.00 0.00 0.00 0.00 0.01 0.01 0.01 0.01 0.01 0.02 0.02 0.01 0.00 0.00 0.00 0.01
0.01 0.04 0.05 0.03 0.02 0.00 0.00 0.00 0.00 0.00 0.00 0.00 0.02 0.07 0.09 0.10 0.04 0.01 0.02 0.01 0.00 0.00 0.00 0.00 0.00 0.00 0.00 0.00 0.00 0.00 0.00 0.01 0.02 0.01 0.02 0.02 0.02 0.04 0.05 0.05 0.05 0.03 0.02 0.01
0.01 0.01 0.03 0.02 0.00 0.00 0.00 0.00 0.00 0.01 0.03 0.09 0.11 0.11 0.08 0.03 0.01 0.01 0.00 0.00 0.00 0.00 0.00 0.00 0.01 0.01 0.00 0.00 0.00 0.00 0.01 0.01 0.01 0.02 0.03 0.04 0.06 0.07 0.07 0.08 0.08 0.05 0.03 0.01
0.00 0.00 0.00 0.00 0.00 0.00 0.01 0.01 0.06 0.15 0.16 0.14 0.09 0.03 0.00 0.00 0.00 0.00 0.00 0.00 0.00 0.00 0.00 0.01 0.01 0.00 0.00 0.01 0.02 0.03 0.04 0.07 0.08 0.09 0.09 0.07 0.06 0.07 0.08 0.10 0.10 0.08 0.06 0.04
0.00 0.00 0.01 0.02 0.02 0.05 0.12 0.14 0.13 0.11 0.09 0.04 0.00 0.00 0.00 0.00 0.00 0.00 0.00 0.00 0.00 0.01 0.01 0.02 0.04 0.06 0.10 0.15 0.21 0.22 0.20 0.16 0.12 0.10 0.08 0.07 0.08 0.09 0.10 0.15 0.14 0.11 0.09 0.07
0.00 0.00 0.01 0.06 0.13 0.16 0.15 0.11 0.08 0.03 0.00 0.00 0.01 0.02 0.03 0.06 0.08 0.10 0.09 0.10 0.13 0.16 0.20 0.24 0.24 0.29 0.29 0.26 0.22 0.18 0.15 0.11 0.10 0.09 0.08 0.08 0.08 0.08 0.11 0.12 0.11 0.13 0.14 0.16
0.05 0.10 0.15 0.18 0.16 0.12 0.08 0.05 0.04 0.06 0.10 0.15 0.20 0.27 0.32 0.37 0.41 0.44 0.41 0.40 0.42 0.44 0.46 0.37 0.28 0.21 0.16 0.11 0.07 0.07 0.08 0.09 0.07 0.06 0.07 0.08 0.11 0.13 0.17 0.18 0.17 0.19 0.18 0.15
0.28 0.29 0.25 0.23 0.21 0.19 0.25 0.35 0.41 0.52 0.61 0.56 0.55 0.56 0.57 0.57 0.53 0.51 0.50 0.47 0.39 0.31 0.23 0.16 0.12 0.08 0.04 0.03 0.04 0.07 0.08 0.09 0.10 0.11 0.13 0.15 0.16 0.17 0.22 0.27 0.29 0.26 0.22 0.21
0.45 0.48 0.48 0.49 0.62 0.71 0.70 0.69 0.58 0.56 0.61 0.49 0.41 0.45 0.44 0.45 0.39 0.33 0.29 0.25 0.22 0.14 0.10 0.08 0.07 0.04 0.03 0.03 0.04 0.07 0.12 0.15 0.17 0.20 0.23 0.26 0.30 0.31 0.27 0.21 0.21 0.22 0.21 0.20
0.47 0.46 0.48 0.43 0.35 0.44 0.46 0.41 0.29 0.29 0.28 0.26 0.25 0.24 0.22 0.23 0.22 0.19 0.14 0.12 0.09 0.06 0.05 0.04 0.03 0.02 0.03 0.05 0.08 0.12 0.15 0.18 0.20 0.22 0.26 0.26 0.27 0.23 0.19 0.17 0.17 0.16 0.16 0.15
0.39 0.33 0.30 0.25 0.16 0.19 0.21 0.18 0.16 0.12 0.12 0.14 0.16 0.16 0.14 0.11 0.10 0.10 0.10 0.06 0.03 0.03 0.03 0.05 0.04 0.04 0.06 0.09 0.13 0.16 0.19 0.22 0.23 0.23 0.21 0.20 0.19 0.17 0.14 0.12 0.10 0.11 0.11 0.11
0.24 0.22 0.21 0.16 0.07 0.05 0.08 0.12 0.07 0.06 0.05 0.06 0.08 0.09 0.08 0.06 0.05 0.04 0.05 0.03 0.02 0.02 0.04 0.07 0.07 0.07 0.10 0.18 0.19 0.18 0.17 0.17 0.15 0.16 0.16 0.16 0.16 0.15 0.14 0.12 0.11 0.11 0.12 0.11
0.25 0.26 0.24 0.18 0.13 0.16 0.12 0.08 0.03 0.02 0.02 0.03 0.04 0.03 0.03 0.04 0.10 0.05 0.04 0.04 0.03 0.08 0.11 0.11 0.10 0.09 0.13 0.15 0.16 0.15 0.16 0.15 0.13 0.15 0.16 0.16 0.16 0.15 0.14 0.14 0.13 0.12 0.12 0.11
0.25 0.22 0.20 0.16 0.15 0.12 0.09 0.05 0.06 0.05 0.06 0.05 0.05 0.04 0.04 0.05 0.05 0.05 0.05 0.05 0.07 0.09 0.14 0.16 0.12 0.11 0.14 0.15 0.16 0.15 0.16 0.15 0.14 0.16 0.16 0.15 0.15 0.15 0.14 0.13 0.12 0.13 0.14 0.14
0.22 0.19 0.13 0.10 0.10 0.08 0.06 0.07 0.09 0.07 0.07 0.09 0.10 0.06 0.08 0.08 0.06 0.07 0.09 0.11 0.11 0.13 0.14 0.15 0.14 0.15 0.16 0.16 0.15 0.14 0.14 0.15 0.14 0.14 0.15 0.15 0.15 0.14 0.13 0.14 0.15 0.14 0.13 0.16

GFSNGP_prec_precacc_072.txt.gz
Total_Precipitation_Accumulation
0.00 0.00 0.00 0.00 0.00 0.00 0.00 0.00 0.00 0.00 0.00 0.00 0.00 0.00 0.00 0.00 0.00 0.00 0.00 0.00 0.00 0.01 0.03 0.03 0.05 0.13 0.16 0.21 0.22 0.30 0.28 0.27 0.28 0.27 0.28 0.17 0.13 0.14 0.15 0.18 0.16 0.16 0.12 0.10
0.00 0.00 0.00 0.00 0.00 0.00 0.00 0.00 0.00 0.00 0.00 0.00 0.00 0.00 0.00 0.00 0.00 0.00 0.00 0.00 0.00 0.01 0.04 0.05 0.07 0.11 0.15 0.16 0.18 0.20 0.19 0.21 0.19 0.22 0.20 0.20 0.22 0.15 0.16 0.13 0.09 0.07 0.10 0.11
0.00 0.00 0.00 0.04 0.00 0.00 0.00 0.00 0.00 0.00 0.00 0.00 0.00 0.00 0.00 0.00 0.00 0.00 0.00 0.00 0.00 0.00 0.01 0.03 0.05 0.05 0.08 0.08 0.09 0.08 0.12 0.10 0.11 0.13 0.14 0.11 0.08 0.09 0.07 0.08 0.14 0.18 0.16 0.12
0.00 0.01 0.07 0.02 0.00 0.00 0.00 0.00 0.00 0.00 0.00 0.00 0.00 0.00 0.00 0.00 0.00 0.00 0.00 0.00 0.00 0.01 0.02 0.00 0.00 0.00 0.01 0.01 0.02 0.01 0.01 0.01 0.01 0.01 0.03 0.02 0.05 0.12 0.18 0.25 0.22 0.13 0.05 0.01
0.03 0.03 0.02 0.00 0.00 0.00 0.00 0.00 0.00 0.00 0.00 0.00 0.00 0.00 0.00 0.00 0.03 0.03 0.03 0.01 0.00 0.00 0.00 0.00 0.00 0.00 0.00 0.00 0.00 0.00 0.00 0.00 0.00 0.01 0.04 0.06 0.16 0.28 0.26 0.11 0.02 0.00 0.01 0.01
0.03 0.06 0.04 0.00 0.00 0.00 0.00 0.01 0.00 0.00 0.01 0.00 0.01 0.03 0.04 0.09 0.09 0.07 0.02 0.00 0.00 0.00 0.00 0.00 0.00 0.00 0.00 0.00 0.00 0.00 0.00 0.00 0.00 0.05 0.21 0.27 0.21 0.07 0.00 0.00 0.00 0.00 0.00 0.00
0.08 0.07 0.01 0.00 0.00 0.00 0.08 0.07 0.02 0.02 0.01 0.01 0.04 0.14 0.14 0.10 0.06 0.01 0.00 0.00 0.00 0.00 0.00 0.00 0.00 0.00 0.00 0.00 0.00 0.00 0.02 0.09 0.16 0.17 0.10 0.05 0.02 0.00 0.00 0.00 0.00 0.00 0.01 0.01
0.11 0.09 0.02 0.00 0.01 0.05 0.04 0.03 0.04 0.03 0.01 0.04 0.13 0.11 0.06 0.02 0.00 0.00 0.00 0.00 0.00 0.00 0.00 0.00 0.00 0.00 0.01 0.02 0.02 0.03 0.05 0.04 0.02 0.04 0.04 0.01 0.00 0.00 0.00 0.00 0.00 0.00 0.01 0.01
0.06 0.02 0.00 0.00 0.01 0.02 0.03 0.04 0.03 0.03 0.08 0.15 0.06 0.03 0.03 0.00 0.00 0.00 0.01 0.01 0.00 0.00 0.00 0.00 0.00 0.01 0.02 0.01 0.00 0.01 0.02 0.03 0.03 0.02 0.00 0.00 0.00 0.00 0.00 0.00 0.00 0.01 0.01 0.02
0.12 0.03 0.03 0.06 0.03 0.02 0.03 0.04 0.05 0.14 0.12 0.03 0.05 0.03 0.02 0.02 0.03 0.02 0.01 0.00 0.01 0.01 0.02 0.03 0.01 0.01 0.00 0.00 0.01 0.01 0.01 0.00 0.00 0.00 0.00 0.00 0.00 0.00 0.00 0.00 0.00 0.00 0.01 0.01
0.09 0.05 0.07 0.09 0.16 0.14 0.13 0.19 0.16 0.05 0.07 0.07 0.02 0.03 0.04 0.03 0.02 0.01 0.01 0.02 0.02 0.01 0.02 0.01 0.00 0.00 0.00 0.00 0.00 0.00 0.00 0.00 0.00 0.00 0.00 0.00 0.00 0.00 0.00 0.00 0.00 0.01 0.01 0.03
0.05 0.06 0.13 0.17 0.18 0.23 0.18 0.06 0.04 0.06 0.03 0.00 0.00 0.00 0.00 0.00 0.01 0.02 0.04 0.02 0.01 0.00 0.01 0.01 0.00 0.00 0.00 0.00 0.00 0.00 0.00 0.00 0.00 0.01 0.01 0.00 0.00 0.00 0.00 0.00 0.00 0.00 0.00 0.01
0.06 0.06 0.10 0.15 0.12 0.05 0.01 0.01 0.01 0.00 0.00 0.01 0.00 0.00 0.01 0.03 0.09 0.07 0.02 0.01 0.01 0.01 0.00 0.00 0.00 0.00 0.00 0.00 0.00 0.00 0.00 0.00 0.01 0.01 0.01 0.01 0.01 0.02 0.02 0.01 0.00 0.00 0.00 0.01
0.01 0.04 0.05 0.03 0.02 0.01 0.00 0.00 0.00 0.00 0.00 0.00 0.02 0.07 0.09 0.10 0.04 0.01 0.02 0.01 0.00 0.00 0.00 0.00 0.00 0.00 0.00 0.00 0.00 0.00 0.00 0.02 0.02 0.02 0.03 0.02 0.02 0.04 0.06 0.08 0.09 0.05 0.02 0.01
0.01 0.01 0.03 0.02 0.00 0.00 0.00 0.00 0.00 0.01 0.03 0.09 0.11 0.11 0.08 0.03 0.01 0.01 0.00 0.00 0.00 0.00 0.00 0.00 0.01 0.01 0.00 0.00 0.00 0.01 0.02 0.03 0.03 0.04 0.06 0.08 0.12 0.13 0.11 0.10 0.09 0.05 0.03 0.01
0.00 0.00 0.00 0.00 0.00 0.00 0.01 0.01 0.06 0.15 0.16 0.14 0.09 0.03 0.00 0.00 0.00 0.00 0.00 0.00 0.00 0.00 0.00 0.01 0.01 0.01 0.02 0.04 0.05 0.06 0.08 0.12 0.15 0.18 0.19 0.16 0.14 0.13 0.12 0.12 0.12 0.09 0.07 0.05
0.01 0.01 0.01 0.02 0.02 0.05 0.12 0.14 0.13 0.11 0.09 0.04 0.00 0.00 0.00 0.00 0.00 0.00 0.00 0.00 0.00 0.01 0.03 0.07 0.12 0.15 0.18 0.21 0.26 0.29 0.27 0.24 0.21 0.19 0.17 0.16 0.15 0.14 0.13 0.17 0.16 0.12 0.09 0.07
0.00 0.01 0.01 0.06 0.13 0.16 0.15 0.11 0.08 0.03 0.00 0.00 0.01 0.02 0.03 0.06 0.08 0.10 0.10 0.11 0.17 0.24 0.29 0.31 0.29 0.32 0.33 0.31 0.27 0.24 0.21 0.17 0.15 0.14 0.12 0.12 0.11 0.10 0.12 0.13 0.12 0.13 0.14 0.16
0.05 0.10 0.15 0.18 0.16 0.12 0.08 0.05 0.04 0.06 0.10 0.15 0.20 0.27 0.32 0.39 0.44 0.50 0.50 0.48 0.49 0.48 0.52 0.42 0.31 0.24 0.19 0.15 0.11 0.11 0.12 0.12 0.10 0.08 0.09 0.09 0.11 0.13 0.17 0.18 0.17 0.19 0.18 0.15
0.28 0.29 0.26 0.23 0.22 0.20 0.26 0.38 0.44 0.56 0.67 0.61 0.59 0.62 0.63 0.65 0.62 0.60 0.56 0.52 0.44 0.35 0.27 0.19 0.14 0.10 0.06 0.05 0.06 0.08 0.09 0.09 0.10 0.11 0.13 0.15 0.16 0.18 0.22 0.27 0.29 0.26 0.22 0.21
0.48 0.52 0.53 0.55 0.67 0.78 0.78 0.79 0.65 0.65 0.73 0.60 0.49 0.52 0.51 0.53 0.46 0.38 0.31 0.26 0.26 0.16 0.11 0.09 0.07 0.05 0.03 0.03 0.04 0.07 0.12 0.15 0.17 0.20 0.23 0.26 0.30 0.31 0.28 0.21 0.21 0.22 0.21 0.20
0.53 0.53 0.57 0.52 0.43 0.54 0.57 0.50 0.36 0.36 0.35 0.33 0.32 0.30 0.26 0.27 0.25 0.20 0.15 0.13 0.11 0.08 0.06 0.04 0.03 0.02 0.03 0.05 0.08 0.12 0.15 0.18 0.20 0.22 0.27 0.27 0.27 0.23 0.20 0.17 0.18 0.16 0.16 0.15
0.49 0.43 0.41 0.35 0.25 0.29 0.31 0.26 0.25 0.18 0.18 0.20 0.20 0.19 0.16 0.13 0.11 0.10 0.12 0.08 0.03 0.03 0.03 0.05 0.04 0.04 0.06 0.10 0.13 0.16 0.19 0.22 0.23 0.23 0.21 0.20 0.20 0.17 0.15 0.12 0.11 0.11 0.12 0.12
0.34 0.31 0.30 0.25 0.14 0.09 0.14 0.19 0.11 0.09 0.07 0.09 0.10 0.10 0.08 0.07 0.05 0.04 0.05 0.03 0.02 0.02 0.04 0.07 0.07 0.07 0.10 0.18 0.19 0.18 0.17 0.18 0.15 0.16 0.16 0.16 0.16 0.15 0.14 0.12 0.12 0.11 0.12 0.11
0.35 0.35 0.31 0.23 0.16 0.19 0.15 0.11 0.05 0.03 0.03 0.04 0.05 0.03 0.03 0.04 0.10 0.05 0.04 0.04 0.03 0.08 0.11 0.11 0.10 0.09 0.13 0.15 0.16 0.15 0.16 0.16 0.13 0.15 0.16 0.16 0.16 0.15 0.14 0.14 0.13 0.12 0.12 0.11
0.31 0.26 0.24 0.19 0.18 0.15 0.11 0.06 0.08 0.06 0.06 0.05 0.06 0.05 0.05 0.05 0.05 0.05 0.05 0.05 0.07 0.09 0.14 0.16 0.12 0.11 0.14 0.15 0.16 0.15 0.16 0.15 0.14 0.16 0.16 0.15 0.15 0.15 0.14 0.13 0.12 0.13 0.14 0.14
0.26 0.22 0.16 0.12 0.12 0.09 0.07 0.08 0.09 0.08 0.08 0.09 0.11 0.07 0.08 0.08 0.06 0.07 0.09 0.11 0.11 0.13 0.14 0.15 0.14 0.15 0.16 0.16 0.15 0.14 0.14 0.15 0.15 0.15 0.15 0.15 0.15 0.14 0.13 0.14 0.15 0.14 0.13 0.16